GFSGBSN_sfc_thetae_000.txt.gz
Theta_e
324 323 321 321 320 320 319 319 317 317 317 317 317 315 316 316 316 317 316 316 315 314 314 313 312 312 308 305 305 314 329 328 315 307 304 303 300 300 297 298 295 292 294 296 295 295 294
323 321 321 320 320 320 319 319 318 316 316 316 315 314 315 314 315 315 315 316 314 313 312 311 311 311 303 299 308 316 318 312 309 306 304 303 303 303 300 295 295 297 293 292 295 293 293
322 321 320 319 319 318 319 318 318 316 316 316 315 314 314 315 315 315 315 315 313 312 311 310 311 309 307 304 310 311 313 308 309 307 304 306 305 301 299 294 297 295 292 293 294 293 293
321 321 320 319 318 317 317 317 317 316 316 315 315 313 313 314 314 313 314 313 312 311 310 310 311 308 304 313 313 311 304 304 308 308 306 307 307 303 299 298 295 292 290 287 291 294 293
321 321 320 319 318 317 317 317 316 315 315 314 314 313 313 313 313 313 312 311 311 310 309 311 305 304 301 312 307 306 305 304 306 305 305 307 303 298 296 291 288 289 284 286 289 294 293
321 320 320 319 318 317 317 316 316 315 314 313 314 313 313 314 314 312 310 310 310 310 309 309 309 300 304 301 307 304 305 305 304 304 303 301 297 293 292 289 284 285 285 285 287 291 294
321 320 319 319 318 318 318 317 316 314 313 313 314 314 315 314 314 311 308 306 300 300 304 297 299 300 304 306 305 302 304 304 303 301 295 297 292 288 289 291 291 290 288 286 287 292 294
319 319 319 319 318 318 318 317 316 315 315 315 314 314 314 314 313 310 308 304 305 307 301 307 307 306 308 306 299 301 306 299 298 293 295 293 289 293 296 295 294 292 289 288 291 295 294
318 318 318 319 318 318 317 317 316 315 314 313 313 313 314 313 312 310 305 306 315 310 299 300 306 304 304 305 298 299 303 300 296 294 293 290 292 297 296 294 294 292 289 289 290 295 294
317 317 317 318 318 317 316 316 316 315 313 312 312 313 312 312 307 306 304 310 315 308 290 294 297 301 303 303 298 303 303 301 297 292 294 294 297 295 294 293 293 289 294 293 292 290 286
316 316 316 316 316 315 314 315 314 314 313 312 312 312 312 311 305 310 314 320 314 304 278 294 298 306 301 300 298 299 305 301 294 294 295 292 293 294 293 292 295 293 295 293 290 288 287
316 315 315 315 314 313 313 313 312 312 311 312 312 312 312 309 306 310 316 308 303 289 280 292 298 296 297 299 298 300 301 304 300 296 296 294 296 295 293 296 295 297 295 293 291 288 281
315 315 314 314 313 312 312 312 311 311 311 311 312 312 310 312 312 320 311 301 288 282 295 291 293 296 295 295 297 297 295 294 292 289 289 293 293 295 296 293 295 294 290 283 282 279 280
314 314 313 313 312 312 312 311 310 310 310 311 311 311 310 311 313 312 304 293 283 292 291 294 295 295 293 295 295 295 293 291 294 293 289 287 284 292 295 292 290 289 290 283 279 276 281
314 313 313 312 311 311 311 311 310 309 309 311 310 308 307 317 313 308 298 282 287 291 294 294 295 292 292 295 295 294 290 290 292 293 290 287 287 293 294 295 294 290 285 290 284 282 280
314 313 312 311 311 311 310 310 309 309 309 311 308 308 308 315 310 305 293 289 296 300 298 296 290 293 290 292 292 292 291 295 294 296 295 292 286 291 294 296 295 291 293 284 282 277 275
313 312 311 310 310 310 310 308 309 309 310 311 304 298 303 314 303 297 286 291 299 303 301 295 293 292 292 292 292 291 292 295 297 297 296 292 289 288 292 290 288 290 288 287 286 281 276
311 310 310 310 310 310 308 306 309 309 310 310 298 292 307 303 293 291 290 298 301 298 300 300 298 295 293 294 293 292 293 295 298 298 291 292 288 282 287 292 294 290 288 286 278 280 278
310 309 310 310 310 308 306 307 309 309 312 308 299 304 312 302 285 282 293 299 301 297 297 298 297 298 298 295 291 294 295 298 296 295 293 293 286 281 285 289 291 288 290 288 285 282 281
309 309 309 310 309 307 308 308 308 309 312 308 303 296 301 298 294 292 292 294 296 300 299 299 298 299 297 295 296 294 294 297 296 296 299 297 288 285 281 284 286 284 288 288 286 278 280
308 308 308 308 306 306 307 308 308 309 310 309 299 296 300 289 292 293 294 296 295 295 299 299 297 297 296 291 291 291 295 294 296 299 296 292 285 285 286 287 287 286 286 288 286 285 282
308 307 307 305 305 304 305 307 308 308 309 306 301 296 293 293 298 298 294 296 296 296 297 295 295 297 296 292 294 293 294 291 290 296 292 290 282 283 284 287 286 285 286 286 286 286 286
307 305 304 304 304 305 307 307 307 308 309 303 304 304 298 290 291 294 292 298 298 299 298 299 298 296 293 296 297 296 296 295 295 294 288 284 282 280 277 282 281 278 284 286 286 287 287
306 304 304 304 307 308 307 307 307 308 309 307 307 305 296 285 287 293 298 299 298 298 297 299 299 295 298 301 298 296 295 295 296 293 291 282 280 277 275 276 271 284 288 289 288 289 291
306 305 307 308 307 307 306 306 307 307 308 310 308 305 298 284 290 295 298 298 299 299 298 299 301 300 301 294 288 288 285 286 286 292 289 287 280 277 275 274 280 284 290 289 288 287 292
307 307 307 307 306 306 305 305 305 307 309 310 310 306 302 294 292 300 298 298 291 291 291 295 303 301 295 284 283 280 280 284 283 288 290 287 281 279 272 271 270 283 288 293 291 283 293
307 307 306 306 305 305 305 305 305 307 309 312 309 309 305 298 301 301 297 297 297 294 290 295 296 295 293 280 276 278 280 286 282 281 279 280 278 273 270 270 278 285 291 293 283 285 293
306 306 306 305 305 305 305 305 305 306 309 312 310 311 307 300 301 305 304 299 299 297 292 297 294 292 285 283 279 279 277 283 282 285 284 283 278 276 275 270 276 290 291 287 291 290 293
305 305 306 307 305 304 303 303 304 306 309 312 311 314 310 304 303 306 307 306 305 303 299 295 296 295 292 286 278 283 283 285 279 280 288 283 284 281 282 282 289 291 292 293 293 292 293

GFSGBSN_sfc_thetae_003.txt.gz
Theta_e
325 325 323 322 321 320 320 320 319 317 317 317 317 316 316 315 316 316 315 316 316 316 315 313 312 312 308 305 307 318 329 328 320 307 306 305 303 303 301 301 298 297 297 298 296 299 302
324 323 323 322 321 320 320 320 319 318 316 316 316 315 315 315 314 315 314 314 315 315 313 312 311 311 304 300 312 321 320 316 312 307 305 305 304 306 303 300 300 299 298 297 297 296 298
324 323 322 320 319 319 320 318 318 318 317 316 316 314 314 315 315 314 314 315 315 313 311 310 311 310 304 306 313 317 314 313 310 309 305 306 307 305 303 297 299 298 296 297 298 299 298
323 323 322 320 319 318 318 317 317 317 317 316 315 314 314 313 314 313 314 314 313 311 310 310 312 308 303 315 316 313 310 308 310 311 308 309 308 305 301 301 299 296 296 293 297 300 298
323 322 321 320 318 318 317 317 317 317 316 315 314 314 312 312 313 313 313 312 311 309 309 312 307 304 304 315 310 311 308 306 305 308 308 307 307 301 300 297 295 295 291 292 295 299 299
323 322 321 320 319 318 317 317 317 316 315 315 314 313 313 313 313 312 310 310 309 310 310 310 309 302 306 305 310 306 310 309 307 305 305 305 300 298 297 296 289 291 291 293 294 297 299
322 322 321 320 319 319 319 318 317 316 314 314 314 313 313 314 313 310 308 307 303 302 305 303 303 301 304 309 307 306 308 309 308 305 299 300 297 294 296 296 294 294 293 293 294 298 299
318 321 321 320 319 319 319 318 317 315 314 315 313 313 314 314 312 310 308 303 305 310 305 307 307 307 308 309 302 304 311 305 303 298 299 298 294 297 299 298 296 295 294 293 296 298 299
316 319 320 320 319 319 318 318 316 314 314 314 312 313 314 313 311 307 305 306 315 315 304 302 307 305 306 307 302 303 308 305 300 298 296 296 297 299 299 297 297 295 294 293 294 298 299
314 316 319 319 319 318 317 317 316 315 314 313 311 312 312 311 306 307 305 311 312 313 294 296 300 304 305 305 302 306 307 305 300 295 297 298 299 298 297 296 297 294 296 297 295 295 291
314 314 317 317 317 316 315 315 315 315 314 312 311 312 311 311 306 308 315 321 313 308 283 297 300 308 305 302 302 304 307 304 298 297 298 296 297 296 296 296 299 296 298 297 294 293 293
313 312 316 316 316 315 314 313 313 314 313 311 310 311 311 309 308 310 314 314 307 293 283 295 301 300 300 301 301 302 304 305 303 299 299 297 300 299 298 298 298 299 298 297 295 294 289
312 312 312 316 315 314 314 313 312 312 311 310 310 312 310 311 308 316 315 304 292 286 296 293 296 299 298 298 299 299 297 297 296 294 293 296 296 298 300 298 299 298 296 290 288 288 287
311 311 310 315 314 313 313 312 311 311 311 309 310 310 310 310 312 310 305 297 287 292 292 297 296 297 296 298 297 296 296 294 297 296 292 291 290 296 299 298 296 295 295 290 282 284 287
310 311 310 314 314 313 312 311 311 310 309 309 310 308 308 310 313 310 301 287 288 291 295 295 297 294 296 297 297 296 294 294 296 297 294 292 291 297 298 299 299 293 292 295 288 285 286
309 311 310 313 313 311 311 310 311 310 309 310 307 305 308 317 314 306 296 290 295 299 299 297 292 295 293 295 295 295 295 298 297 299 299 296 290 295 297 299 298 297 296 290 289 283 281
309 310 310 313 312 311 310 310 310 309 308 310 308 304 307 314 307 301 291 291 299 303 301 297 295 295 295 295 295 295 295 298 300 299 299 295 295 293 296 294 294 294 291 290 290 287 283
308 309 310 312 311 310 310 310 310 309 309 308 302 296 309 305 296 293 292 297 301 302 302 302 299 298 296 297 296 295 295 298 301 302 297 296 294 290 291 296 298 296 292 291 287 283 283
308 308 308 311 310 310 310 309 308 309 310 307 298 306 314 305 289 288 295 300 302 300 299 301 300 301 302 298 294 297 298 301 300 299 297 297 292 288 290 293 295 294 293 290 289 288 284
306 306 308 311 310 309 309 307 307 309 311 308 304 299 304 298 296 294 294 296 297 301 301 301 300 302 300 298 299 296 297 300 300 300 299 299 291 290 287 289 291 290 292 291 291 287 285
306 306 309 309 309 309 307 307 308 309 310 307 301 298 303 293 292 294 295 296 296 297 302 302 300 300 298 294 295 295 298 297 299 300 298 296 291 290 289 290 290 290 290 290 289 290 289
307 308 308 308 308 307 307 307 308 309 310 305 299 298 296 296 297 294 293 297 297 298 300 299 299 300 301 296 297 295 297 295 295 298 295 293 288 288 288 289 289 289 290 290 290 290 289
307 308 307 307 306 306 306 307 307 309 311 305 305 303 301 290 295 294 293 296 298 301 301 301 301 299 297 300 300 298 298 297 298 297 291 290 287 286 283 285 285 284 288 290 290 291 293
308 307 306 305 305 305 306 307 307 309 309 308 308 304 297 287 291 293 298 300 299 300 299 301 302 300 301 303 301 300 298 297 296 293 293 286 285 283 284 281 281 290 292 292 291 291 293
306 306 305 305 305 307 307 307 307 309 310 312 310 305 297 286 292 294 298 299 300 301 300 301 302 302 304 298 293 291 289 290 290 291 290 290 286 281 284 282 284 288 289 291 291 292 295
305 304 306 307 306 306 306 306 307 308 309 311 311 307 303 293 292 298 299 299 295 295 296 299 303 303 298 289 289 286 286 289 287 291 292 289 286 287 281 282 280 288 291 297 296 289 296
306 306 306 306 305 305 305 305 306 307 309 312 311 309 307 298 302 302 299 298 299 297 295 297 299 299 298 288 286 287 288 289 286 284 283 286 283 284 277 284 285 290 294 296 287 290 296
306 305 305 305 305 305 305 305 306 307 309 313 311 312 309 303 304 307 304 300 300 300 296 299 298 297 291 289 288 287 287 288 288 289 287 287 285 282 279 280 282 292 295 292 298 297 297
305 305 305 304 304 302 303 305 307 307 309 311 311 314 312 306 305 308 309 309 309 305 301 299 301 298 297 291 287 286 286 286 284 287 290 287 289 288 287 288 294 295 297 299 298 297 298

GFSGBSN_sfc_thetae_006.txt.gz
Theta_e
326 326 324 324 323 322 322 321 320 319 318 317 318 317 317 316 316 316 315 315 316 316 315 314 313 313 312 310 309 323 328 326 320 314 311 310 307 306 302 305 305 303 304 302 302 305 311
324 325 324 323 323 322 322 321 320 318 318 316 317 316 316 316 315 315 315 315 315 315 313 312 312 312 310 304 317 323 325 318 316 313 312 312 308 309 306 306 305 304 302 301 302 306 305
320 324 323 322 322 321 321 319 319 318 318 317 316 316 316 315 315 315 315 314 315 313 311 311 311 311 308 309 318 324 320 317 317 314 312 314 312 308 308 303 305 304 300 302 303 305 303
320 321 324 322 320 319 318 318 318 318 318 317 316 316 315 314 313 314 313 314 312 311 310 310 312 310 308 319 321 318 318 315 317 317 314 313 314 310 306 306 303 301 301 297 302 303 303
318 320 323 322 320 319 318 318 317 317 318 317 315 315 314 313 312 313 313 312 311 310 310 311 310 309 308 318 313 315 316 309 312 314 313 310 311 307 304 302 299 300 294 296 298 305 303
317 319 321 322 320 319 318 318 317 317 316 316 315 314 313 312 312 312 310 311 310 310 311 312 312 306 313 309 314 311 314 312 310 309 307 307 306 303 303 300 293 295 295 297 297 303 303
316 319 320 322 321 320 320 319 317 316 316 315 315 314 313 313 313 310 310 311 309 307 308 308 307 308 308 313 314 310 312 312 311 307 303 305 300 298 301 301 301 300 298 297 300 304 304
314 317 319 322 321 320 320 319 317 316 316 315 314 314 313 314 312 310 311 310 313 316 307 312 311 310 312 312 306 309 315 307 306 301 305 301 298 301 303 302 301 300 298 298 300 303 304
313 315 317 319 321 320 319 319 317 316 315 314 314 313 313 313 311 309 309 311 322 321 310 307 312 308 309 311 305 306 311 308 304 300 302 300 301 304 303 302 300 301 299 299 298 302 304
312 313 315 317 320 319 318 318 317 316 314 313 313 312 312 310 307 313 309 315 318 320 301 300 304 308 309 309 304 310 312 309 304 301 303 302 303 302 302 300 301 298 301 301 300 299 295
311 312 313 314 316 318 316 316 316 315 315 314 312 311 311 310 316 311 320 327 326 317 288 302 304 312 309 305 307 307 311 309 302 302 303 299 301 301 301 300 302 300 304 302 301 300 299
310 311 313 313 314 316 315 315 314 314 314 313 311 311 311 310 312 318 323 324 319 301 287 298 304 303 304 305 305 308 308 310 308 304 305 302 305 304 303 303 303 304 303 302 302 300 293
309 310 311 312 314 315 315 314 313 313 313 312 311 311 311 316 314 322 327 318 299 292 299 297 299 303 303 301 303 304 304 303 301 297 298 301 301 304 305 302 304 304 301 293 290 291 290
308 309 310 312 312 314 314 313 312 312 312 311 310 310 312 315 321 321 317 304 291 295 297 301 301 302 300 302 301 302 302 300 303 302 299 295 293 300 303 302 300 302 300 293 284 288 291
307 309 310 311 311 314 314 313 311 311 311 310 309 310 309 316 318 317 311 300 295 298 301 299 300 298 299 301 301 301 301 301 301 303 297 296 294 302 302 303 303 298 297 301 294 293 292
307 308 308 309 310 312 313 312 311 311 310 309 310 307 314 323 324 317 308 297 299 303 303 302 296 299 296 299 298 300 300 302 301 303 305 301 294 299 300 303 303 301 302 295 297 287 285
306 307 307 308 310 311 312 311 311 310 309 310 314 309 320 327 322 310 302 300 302 308 307 301 299 298 299 299 300 298 299 302 304 302 305 302 300 297 300 299 299 298 297 296 297 294 288
306 306 307 307 310 311 312 311 310 310 309 309 314 304 320 321 308 306 302 302 303 306 306 305 304 302 301 302 300 300 299 302 306 305 301 302 301 296 297 300 302 301 298 297 292 289 292
305 306 306 307 309 310 311 310 310 309 310 310 308 312 318 313 301 304 302 303 306 304 304 305 303 305 305 303 299 302 302 303 304 305 303 303 299 293 294 298 300 298 299 297 296 296 290
305 305 307 308 309 309 310 310 309 309 310 316 311 306 312 309 308 304 301 301 300 306 305 306 305 307 305 302 304 301 302 302 304 304 299 302 300 297 293 294 298 295 297 298 297 292 291
304 305 306 307 307 308 310 309 309 309 310 315 312 307 310 303 302 304 304 302 299 301 306 307 304 305 304 301 301 301 303 301 303 301 304 304 297 296 295 295 295 295 296 296 295 296 292
305 305 305 306 306 306 309 308 308 308 310 313 309 308 309 306 304 302 299 300 299 303 305 303 304 305 306 303 303 301 303 302 302 304 303 300 297 295 293 294 294 293 296 297 297 297 296
305 305 304 305 306 308 308 307 307 308 311 312 316 313 311 298 303 301 300 301 301 307 306 306 307 307 304 305 308 308 306 306 305 304 301 299 296 293 290 291 292 290 294 296 297 299 298
305 305 305 306 307 308 307 307 307 308 313 318 320 315 309 300 303 301 301 302 305 307 306 306 308 307 306 309 309 308 306 304 303 300 300 294 294 292 292 287 286 294 297 297 297 298 300
304 305 307 309 308 307 306 306 307 308 311 320 321 316 309 295 304 301 302 302 306 307 307 307 307 308 311 307 304 299 299 299 298 298 297 298 296 290 291 289 292 293 293 294 295 295 300
305 306 307 306 305 305 305 306 307 308 310 322 323 322 316 305 302 304 303 306 305 306 306 304 307 310 306 305 302 296 293 295 293 296 298 295 295 296 289 290 287 293 295 301 300 292 300
306 306 305 304 305 305 305 306 307 308 310 321 322 320 315 307 308 308 304 304 309 309 307 305 304 305 305 302 298 299 296 296 293 291 289 293 293 291 290 291 292 296 298 301 289 293 302
305 305 305 306 305 305 306 306 306 308 309 318 321 322 321 314 310 311 311 308 307 311 307 306 305 305 304 301 302 299 297 297 295 295 293 293 292 291 288 288 287 297 299 295 301 305 304
305 305 305 305 304 305 305 306 306 307 309 315 320 321 323 317 313 316 314 314 314 316 312 309 309 307 309 304 301 299 292 290 295 294 296 293 297 297 295 296 299 301 304 305 304 304 305

GFSGBSN_sfc_thetae_009.txt.gz
Theta_e
321 321 326 325 324 323 323 323 321 320 319 319 318 318 318 318 317 317 316 315 316 317 316 315 314 313 314 312 313 327 327 326 319 317 313 310 308 308 303 305 306 305 306 306 305 306 310
318 320 321 324 324 323 323 322 321 319 319 319 318 317 317 317 316 316 316 315 315 316 314 313 312 312 314 306 319 326 322 318 317 316 312 313 310 310 306 306 306 307 307 303 307 308 312
317 318 320 322 323 323 323 321 320 319 319 318 318 316 316 316 316 315 315 315 315 314 312 311 311 313 311 311 320 326 321 316 317 316 311 314 314 309 310 306 309 305 301 301 307 308 309
316 317 319 319 322 321 320 320 319 319 319 318 318 316 315 315 314 314 315 314 313 311 311 310 312 315 310 321 323 319 323 319 320 319 316 316 317 312 309 309 305 302 303 300 306 307 306
315 316 317 319 320 321 320 319 318 319 319 318 317 316 315 314 313 313 313 312 311 310 309 311 313 314 310 318 314 318 320 313 315 317 317 314 313 309 308 302 300 301 295 298 301 306 303
314 315 316 317 319 321 320 319 318 318 317 317 317 315 315 313 313 313 312 310 310 310 312 315 316 311 314 309 316 315 318 315 313 313 309 309 308 304 304 300 292 296 297 298 298 302 303
312 314 315 316 319 320 322 320 318 317 316 317 316 315 314 313 313 311 310 314 311 311 312 311 311 310 310 315 317 314 315 313 313 311 303 306 302 299 301 302 302 301 298 297 301 303 302
312 313 314 315 317 320 322 321 318 316 316 316 316 315 314 314 314 311 313 312 317 320 311 312 312 312 314 315 308 311 316 308 308 302 305 303 299 303 305 304 301 300 298 299 302 304 305
311 312 313 314 316 318 321 320 318 316 316 316 314 315 314 313 311 310 313 314 325 324 313 310 312 311 311 313 307 308 312 309 305 302 302 301 302 305 303 301 300 300 298 299 299 304 306
310 311 312 313 314 316 319 319 318 316 316 315 314 313 312 311 308 317 313 318 319 321 305 303 306 310 311 312 305 312 313 310 306 301 304 302 306 304 302 300 302 297 304 303 300 300 295
308 310 311 312 313 314 315 317 317 316 315 314 313 312 311 311 320 313 324 329 326 324 290 304 306 315 312 307 308 308 314 309 304 303 304 301 303 302 301 302 304 301 306 304 303 301 300
307 309 310 311 312 313 314 315 315 315 314 314 313 312 311 311 315 321 326 330 326 303 290 300 306 305 305 306 306 309 308 311 310 304 305 303 308 306 305 305 305 307 304 303 303 300 293
307 308 309 310 311 312 313 314 314 314 314 313 312 312 312 317 316 325 329 324 302 293 302 298 300 304 303 302 303 305 303 302 299 295 298 302 303 306 307 303 306 305 301 293 291 292 291
306 307 308 309 310 311 312 314 313 313 313 312 311 311 312 318 323 327 326 312 294 298 299 303 302 303 300 302 303 303 301 299 303 303 298 296 295 303 306 304 301 302 300 293 286 288 291
303 306 307 308 309 310 311 313 313 312 312 311 310 311 311 316 321 323 316 300 298 298 303 300 301 298 299 301 301 303 302 301 303 304 297 296 295 305 305 306 305 301 298 303 296 297 293
303 304 305 307 308 310 311 312 312 312 310 309 313 309 313 321 322 318 309 299 302 304 304 303 297 300 297 299 299 301 301 304 303 306 308 302 295 302 303 306 306 303 305 295 296 287 286
303 303 305 306 307 309 310 312 312 311 310 310 315 308 319 324 321 311 302 303 304 308 307 302 300 299 300 299 300 300 301 305 307 306 307 304 300 299 302 300 299 300 298 299 299 298 290
302 303 303 306 307 308 310 311 311 310 309 309 313 304 324 327 307 309 305 306 304 307 310 306 306 303 301 302 300 300 299 302 309 308 301 304 302 298 299 304 305 304 301 301 294 292 295
302 301 302 306 306 307 309 311 311 310 309 312 309 311 323 322 302 308 307 305 306 306 306 306 303 305 305 302 298 301 302 308 309 308 304 306 300 294 296 300 303 299 301 301 299 298 292
301 302 303 305 306 305 308 310 310 309 310 317 311 305 311 311 313 307 304 303 302 309 307 308 305 307 306 303 306 302 303 306 308 308 301 304 301 298 294 297 301 298 299 300 299 294 294
302 303 304 305 306 305 308 310 310 309 309 314 312 307 311 304 308 308 307 304 301 302 308 310 306 305 304 300 303 303 306 304 306 302 305 306 299 300 301 300 299 298 298 299 297 297 295
302 303 304 305 305 306 307 309 309 309 309 311 308 308 312 310 310 307 302 302 302 304 306 305 304 305 306 303 304 301 306 306 304 307 306 307 300 300 297 300 299 296 299 298 299 299 298
303 303 304 305 306 306 306 307 308 309 310 311 317 318 314 306 309 305 304 303 303 307 309 309 307 307 305 308 312 312 312 311 310 307 306 304 301 296 292 296 296 291 297 298 299 300 299
303 304 305 305 306 306 306 304 308 308 311 316 318 317 308 304 308 304 304 304 304 307 307 309 311 308 311 315 314 312 309 307 306 305 308 301 300 298 293 289 284 296 301 300 299 301 302
303 304 305 306 306 305 305 304 308 308 309 319 324 318 312 301 306 304 304 303 306 309 310 310 311 314 315 312 305 301 301 301 300 301 301 304 301 294 293 291 294 295 297 296 296 296 302
304 304 305 305 305 304 304 305 307 307 309 317 321 326 316 309 306 306 304 304 306 308 309 308 312 316 312 312 306 296 294 297 296 299 301 299 301 297 292 289 286 296 299 303 302 293 302
303 304 304 305 305 305 306 306 307 307 308 316 324 329 315 307 309 309 304 304 308 309 309 308 309 308 311 307 299 299 297 300 294 293 292 295 296 293 293 292 295 300 300 303 291 295 303
303 304 304 305 305 305 306 306 306 307 307 313 325 329 317 309 312 312 310 308 308 309 309 311 308 309 309 303 303 302 300 301 298 299 297 295 295 293 295 289 287 301 301 296 303 306 305
303 304 305 305 304 305 305 305 306 306 307 310 322 328 330 314 316 319 320 320 317 316 314 313 311 311 312 308 306 308 297 294 300 294 302 296 300 299 297 298 303 304 303 306 306 305 305

GFSGBSN_sfc_thetae_015.txt.gz
Theta_e
317 317 318 319 319 321 323 325 323 322 321 320 320 319 319 319 319 317 315 314 314 315 316 317 316 314 309 307 310 324 327 327 315 312 308 307 306 302 297 299 300 299 300 303 309 309 309
316 316 316 317 318 319 321 323 324 321 321 320 319 318 318 318 318 317 316 315 314 315 316 316 315 314 305 303 320 323 317 313 310 310 309 309 305 305 302 301 298 302 301 299 301 306 308
316 316 316 316 316 317 319 319 322 322 321 320 319 318 318 317 317 316 315 315 314 315 315 315 313 309 306 305 315 315 316 310 309 309 306 310 308 306 304 302 307 303 297 298 302 305 305
315 315 316 315 316 316 317 318 320 322 321 320 319 318 317 316 315 315 314 314 314 315 314 314 312 307 303 319 314 314 313 310 311 312 311 312 311 307 304 305 303 298 298 291 301 304 307
314 315 315 315 315 315 315 317 318 320 321 320 319 318 317 315 314 314 313 314 314 314 314 313 305 305 306 320 313 315 314 314 313 313 312 314 308 303 304 297 294 296 290 296 298 304 301
313 314 314 314 314 315 316 316 317 319 320 319 318 317 316 315 314 313 312 313 313 311 311 311 310 302 310 309 314 314 313 313 310 310 308 306 300 297 297 294 289 290 293 293 295 298 299
312 312 313 314 314 314 314 316 316 318 318 319 318 317 316 314 314 312 310 307 303 304 305 304 305 306 309 313 314 310 312 310 309 306 297 301 294 292 296 298 299 298 295 295 296 300 295
311 312 312 312 314 313 313 314 314 317 318 318 317 317 316 314 313 313 307 304 309 310 303 311 308 308 311 313 306 309 311 304 304 299 301 298 293 300 303 302 299 298 295 294 297 297 294
310 311 312 311 313 314 313 313 314 315 317 317 316 316 315 313 312 310 306 308 313 312 303 310 313 308 307 311 306 305 307 304 301 300 300 296 299 305 303 300 297 297 297 294 294 295 295
309 309 310 311 311 313 313 313 313 314 317 316 315 314 313 311 307 309 307 313 313 311 296 303 306 305 307 309 304 310 309 305 302 299 301 299 303 302 300 298 298 294 301 300 298 295 288
307 307 308 309 310 310 311 311 313 313 316 316 314 313 311 312 308 309 317 318 314 312 284 302 303 312 310 305 304 305 309 306 299 302 300 298 301 300 298 299 301 296 301 299 299 294 295
307 307 307 307 309 309 310 311 311 312 315 315 314 313 311 310 309 310 314 315 319 298 284 301 305 303 302 304 303 305 304 307 305 300 301 299 303 302 300 303 302 303 299 298 297 293 286
306 306 306 306 307 308 308 310 310 311 313 314 313 313 311 313 307 316 313 314 294 285 301 298 298 302 300 299 300 301 299 297 293 291 293 298 298 304 305 299 302 301 295 286 284 284 283
304 305 305 305 306 306 307 308 309 310 313 313 312 311 311 311 315 317 315 306 289 296 297 302 301 300 297 299 298 299 297 293 296 296 292 292 289 298 302 298 296 297 294 287 281 281 287
304 303 304 304 304 305 306 307 309 310 312 312 311 310 310 310 312 313 309 295 291 298 299 300 299 295 295 299 298 297 295 294 296 297 291 292 294 302 304 303 301 297 291 296 291 292 287
303 303 303 303 304 304 306 307 308 310 312 311 308 307 307 312 313 310 301 295 299 304 304 301 295 296 292 295 296 295 295 298 297 299 303 299 292 300 302 304 301 298 299 289 290 281 280
302 303 303 302 303 303 305 307 308 310 311 311 308 302 308 314 313 306 294 296 302 307 306 302 298 295 296 295 297 294 296 299 300 302 304 300 297 296 301 298 294 295 292 293 293 288 281
301 302 302 302 302 303 304 306 307 309 311 309 307 296 309 314 298 299 293 300 303 305 308 305 303 299 297 299 296 295 296 301 307 303 298 301 297 288 295 301 301 298 296 295 283 285 285
300 301 301 301 302 303 304 306 307 308 310 306 302 303 312 309 290 292 297 300 305 304 304 303 302 302 302 299 295 296 300 306 307 303 299 300 292 283 289 296 299 295 296 296 297 289 285
300 300 300 300 301 303 304 305 306 308 310 308 303 295 305 306 301 296 294 296 299 307 305 306 303 304 300 298 300 297 300 306 306 304 301 303 297 290 284 290 296 293 296 296 293 283 284
299 299 299 300 299 303 303 304 305 307 309 307 303 297 304 296 298 298 298 299 298 300 305 306 301 301 299 293 297 296 302 302 305 302 302 300 291 293 295 298 298 296 296 296 292 293 286
299 299 300 299 301 302 303 303 304 306 309 304 300 299 303 299 302 300 298 298 299 301 302 300 300 301 300 296 299 296 301 301 299 302 299 301 291 292 290 297 296 293 295 295 295 295 293
300 300 300 300 301 302 303 303 303 306 308 301 302 306 305 301 299 297 296 301 301 303 304 304 304 301 299 303 305 306 306 306 305 301 297 297 290 287 285 291 290 283 290 294 295 296 294
300 300 301 301 302 302 303 303 302 306 307 305 303 306 303 295 299 298 301 304 302 303 302 304 305 301 307 311 308 306 304 306 306 306 305 294 292 286 283 283 275 291 298 296 295 296 295
300 300 300 301 302 302 303 302 304 305 308 303 307 307 304 291 301 300 303 303 306 306 303 307 310 310 311 307 297 293 289 289 295 302 302 302 290 286 281 281 287 291 295 294 292 291 296
301 301 301 301 301 301 302 303 304 306 308 305 304 308 308 302 300 304 302 305 301 298 302 306 311 311 312 301 289 286 284 289 289 294 299 298 293 285 282 279 275 289 296 299 298 285 298
301 301 300 301 301 302 302 304 304 306 307 306 304 308 304 305 306 306 302 303 305 304 300 306 305 302 308 288 288 284 285 297 288 287 285 284 284 281 278 277 284 298 298 299 284 286 298
301 300 301 302 302 303 303 304 305 305 306 306 304 308 307 307 307 310 309 305 304 305 297 306 301 301 294 291 288 286 285 289 288 295 290 286 284 281 284 282 280 299 297 289 295 298 299
301 301 301 301 302 302 304 304 304 304 304 305 301 309 312 305 309 316 316 314 314 313 308 304 302 304 303 295 293 290 286 287 287 283 298 288 293 287 289 287 297 298 297 301 300 298 298

GFSGBSN_sfc_thetae_018.txt.gz
Theta_e
317 317 317 317 319 319 320 321 322 322 321 320 320 319 319 320 319 318 317 315 315 315 316 316 316 315 307 304 307 322 328 327 316 311 306 304 304 302 296 297 296 296 298 300 305 308 308
316 317 317 316 317 318 318 320 319 322 321 320 319 318 318 319 318 317 316 315 315 315 315 314 315 313 305 299 317 321 318 312 309 308 306 306 305 303 300 299 297 300 299 298 306 307 308
316 316 316 316 316 316 317 318 318 320 322 321 320 318 318 318 317 316 316 315 314 314 315 315 313 309 304 299 316 316 314 308 307 307 304 307 307 304 303 300 304 303 296 299 302 304 304
315 316 316 316 316 316 316 316 317 318 320 321 320 318 317 316 315 315 314 314 313 314 315 314 312 305 298 315 312 311 311 308 309 308 308 309 309 305 303 303 302 297 294 291 300 304 304
314 315 316 315 315 315 315 315 316 317 319 320 320 318 317 316 315 314 313 313 313 314 314 314 304 304 302 317 313 315 312 309 309 308 308 311 306 301 302 296 292 293 288 293 296 303 304
313 314 314 315 314 315 315 315 315 316 317 319 319 318 316 315 314 313 312 313 312 311 310 311 308 298 306 306 313 313 311 312 309 307 306 304 298 295 295 293 286 289 292 292 293 298 301
312 313 313 313 314 314 314 315 316 315 316 317 319 318 317 315 314 312 309 306 303 303 303 299 299 301 304 310 312 310 310 308 307 303 296 299 293 290 293 295 297 296 294 293 294 298 295
312 312 313 313 313 313 314 314 313 314 315 317 318 317 316 315 313 312 307 302 306 306 300 309 309 307 309 310 303 307 309 302 302 297 298 295 291 297 299 301 299 296 293 292 295 298 294
311 311 311 312 312 312 312 314 313 313 313 315 317 317 315 313 312 309 305 305 312 310 300 306 311 309 310 307 303 305 306 302 300 297 297 293 296 302 301 298 296 294 294 293 293 293 295
310 310 310 311 312 312 312 313 312 313 313 314 316 315 313 312 306 308 305 312 312 309 294 299 306 309 305 305 301 308 307 303 299 296 297 296 300 299 298 297 297 291 298 298 296 292 287
309 309 309 309 310 310 310 310 312 312 313 314 315 314 311 312 307 307 313 313 312 310 279 300 305 310 305 302 303 303 307 303 297 299 298 295 298 297 297 297 299 295 298 297 297 292 289
307 308 308 308 309 308 308 309 310 311 312 313 314 313 311 309 307 308 311 314 315 292 282 299 302 301 300 302 302 302 302 304 303 298 298 296 301 300 300 302 301 301 297 297 294 291 283
305 307 308 308 308 307 307 309 309 310 311 312 314 313 312 312 305 313 315 314 296 287 299 297 297 300 299 298 299 299 297 295 292 289 290 295 296 301 303 296 300 298 293 285 283 281 281
304 306 307 307 307 306 306 308 308 308 310 311 313 311 312 311 311 312 313 304 287 294 296 301 299 299 295 298 297 297 295 292 294 294 290 289 287 297 302 297 293 295 292 284 280 279 284
304 305 306 307 307 306 306 306 307 307 309 310 311 311 309 311 310 312 307 293 289 296 298 297 298 294 294 297 296 295 294 293 295 295 290 289 291 300 301 302 299 294 290 294 288 288 285
304 305 305 305 305 305 305 305 306 307 308 310 307 307 308 311 311 309 300 292 297 303 303 299 293 295 291 293 293 292 292 296 295 297 300 296 290 300 301 302 300 296 296 288 288 282 280
303 304 304 304 304 304 304 304 305 306 308 309 305 300 309 312 311 301 294 293 298 305 305 301 297 294 294 293 294 292 293 297 298 297 301 298 293 293 299 297 295 294 291 291 291 286 281
303 302 303 303 303 303 304 304 305 306 307 306 302 294 309 312 296 296 294 298 299 301 306 304 303 299 294 295 294 293 294 298 304 302 297 299 294 285 294 300 301 297 294 292 283 284 283
302 302 303 303 303 302 303 303 304 305 307 302 297 299 309 307 290 289 296 298 299 299 302 302 300 301 300 296 292 295 297 303 305 302 298 298 291 283 288 293 297 293 294 295 293 286 283
302 301 302 302 303 303 302 303 303 304 306 303 299 292 300 302 299 293 293 294 295 301 301 304 303 303 298 295 298 297 298 303 305 304 302 301 293 288 283 289 293 290 294 294 292 282 284
301 301 301 302 302 302 302 303 303 303 306 303 299 296 298 291 294 294 295 295 293 293 303 304 300 301 298 292 294 294 300 300 303 301 301 298 290 292 293 295 295 294 293 293 291 290 285
301 301 301 301 301 302 302 302 303 303 305 299 295 298 299 296 297 294 294 293 293 295 298 298 299 301 298 294 296 295 300 298 297 299 297 298 290 290 289 293 293 291 293 293 293 293 291
301 300 300 300 300 301 302 302 302 304 305 298 301 304 301 296 296 294 294 294 294 297 300 301 302 300 296 299 301 302 304 303 302 298 295 294 289 285 284 288 288 283 289 292 293 294 294
300 300 300 300 300 301 300 301 303 304 305 303 302 303 299 293 297 295 297 297 296 298 296 303 303 300 303 307 304 302 302 302 304 302 301 291 288 284 281 282 276 291 295 295 293 292 293
299 300 300 300 300 301 300 301 302 303 303 302 305 302 300 287 298 298 298 298 299 301 301 301 305 306 309 303 294 290 287 290 295 300 300 302 289 284 280 280 286 291 293 291 290 289 294
299 299 299 300 300 301 301 302 303 303 303 302 302 305 301 296 296 302 299 299 297 298 299 303 308 309 308 295 288 285 283 287 287 292 297 295 291 286 281 278 276 287 294 297 295 285 296
300 300 300 300 301 301 301 302 302 302 303 303 301 305 300 299 303 304 298 298 301 300 299 302 303 302 303 287 284 283 284 293 285 285 284 283 283 280 276 276 282 292 297 296 282 284 297
300 300 300 301 301 301 301 301 302 302 303 304 302 306 302 300 303 308 305 302 303 303 296 301 301 300 292 289 287 285 283 288 287 291 288 285 282 279 283 278 279 298 295 288 291 296 297
300 300 300 300 301 301 301 301 302 302 304 305 301 306 308 301 302 308 312 312 309 309 305 302 301 303 302 294 290 288 284 284 285 283 295 286 289 285 287 286 295 296 297 299 298 297 296

GFSGBSN_sfc_thetae_024.txt.gz
Theta_e
315 315 317 317 317 317 316 317 318 318 319 320 321 321 321 321 320 319 317 316 316 315 315 315 315 315 307 296 298 318 327 325 317 308 303 300 299 297 293 294 293 292 295 296 297 306 306
315 314 315 317 316 316 315 316 316 317 317 318 319 320 320 320 319 318 317 316 315 314 314 315 315 313 303 291 310 319 317 312 309 305 302 301 301 301 298 296 293 297 297 297 301 305 307
313 314 314 314 313 316 315 315 315 315 316 317 318 320 319 319 319 317 317 315 314 314 314 314 314 308 301 296 310 311 311 307 307 305 301 303 304 300 299 297 300 299 295 298 301 303 305
314 313 314 314 313 314 312 314 315 315 315 316 317 318 318 318 317 316 315 314 314 314 314 314 312 305 297 306 309 310 309 307 306 307 304 304 304 301 298 300 298 294 295 293 298 302 304
314 313 313 314 314 314 313 314 314 315 315 315 315 315 317 317 316 315 314 314 313 314 314 313 303 304 297 310 305 311 310 306 305 304 304 308 303 297 298 293 289 290 286 291 295 301 302
310 313 313 313 313 313 314 313 314 314 314 314 314 315 316 316 316 314 312 312 312 310 310 310 307 295 298 299 307 309 309 308 305 304 302 300 296 293 292 289 284 286 287 288 291 295 298
308 310 312 313 313 313 314 314 313 314 313 314 314 315 315 316 316 313 308 303 299 300 303 299 295 294 297 306 310 305 308 306 304 300 294 296 291 288 290 293 293 292 289 288 292 296 297
309 309 310 310 313 312 313 314 313 312 313 313 314 313 314 315 315 312 304 299 302 303 298 304 304 302 304 309 304 305 308 301 299 294 295 293 289 294 295 295 294 293 290 289 293 294 293
308 308 309 310 310 313 312 312 313 312 312 312 312 312 312 315 313 308 302 304 310 307 297 300 305 305 306 308 303 302 303 300 297 294 294 291 293 297 297 294 293 292 291 290 291 291 292
307 307 308 309 309 310 312 312 311 311 311 312 311 311 311 313 306 305 302 312 311 307 289 294 301 306 307 307 299 306 304 300 296 294 294 293 296 296 294 293 294 291 296 293 292 288 284
307 307 307 307 308 308 310 310 311 310 310 308 310 311 311 312 304 303 310 310 309 306 276 295 303 311 306 300 300 301 304 300 294 294 294 292 294 294 292 294 296 293 296 293 292 289 288
307 307 307 307 306 307 308 309 309 309 309 309 310 311 311 310 308 306 310 312 312 291 278 291 301 299 297 298 298 298 299 301 299 294 295 294 296 296 295 297 297 297 295 293 291 288 282
307 307 307 306 306 306 307 308 309 308 309 309 309 310 311 313 306 309 313 310 295 282 293 291 296 296 294 293 295 296 294 293 290 287 287 291 293 297 298 293 296 294 290 283 282 281 280
307 307 307 306 306 305 306 307 308 308 308 308 308 308 309 311 312 308 312 300 285 290 291 298 297 294 291 293 294 294 292 289 290 291 287 287 285 293 298 294 292 291 290 283 279 278 282
307 307 307 306 306 305 305 306 307 308 307 307 307 304 303 308 312 309 303 288 289 293 298 295 295 290 290 293 293 292 291 290 292 293 288 286 287 295 298 298 295 291 287 290 285 284 282
308 307 307 306 306 305 304 305 307 308 307 307 301 300 298 310 312 307 297 290 293 299 302 300 291 293 288 290 291 291 289 293 292 294 294 292 286 294 296 299 297 293 294 286 285 280 279
307 307 307 307 305 305 304 305 306 307 306 306 300 294 298 313 311 301 290 291 295 301 302 299 296 294 291 291 291 289 290 292 295 293 295 293 289 288 295 292 292 291 289 288 288 284 280
305 307 306 307 306 305 304 304 305 306 306 303 298 286 306 311 295 296 291 294 298 298 301 300 300 299 296 292 290 290 290 294 297 297 292 295 290 283 290 294 296 293 291 289 282 282 281
305 306 306 307 306 305 304 304 304 305 305 299 293 294 306 305 287 290 294 295 297 296 296 298 297 300 298 293 289 292 292 297 298 296 293 295 287 281 285 289 292 290 291 291 288 284 282
304 305 306 307 306 305 304 304 304 305 305 300 294 286 296 299 295 291 291 291 292 300 297 298 297 300 297 294 294 291 292 298 299 297 300 298 289 286 283 285 290 287 290 290 289 281 282
303 304 305 305 306 305 304 304 304 304 304 299 294 288 294 287 290 291 292 293 291 292 298 298 294 296 295 290 290 291 295 297 298 300 296 295 287 287 288 290 291 291 291 290 288 288 285
303 303 304 304 305 304 304 304 304 304 304 296 290 290 296 290 292 292 293 291 291 293 296 294 293 295 296 293 293 290 295 294 294 296 294 294 287 287 286 290 290 288 290 290 289 288 288
303 303 303 303 304 304 304 305 304 304 303 294 295 296 295 292 291 289 290 292 292 295 296 298 296 295 293 296 299 298 298 298 297 295 292 290 287 285 284 285 286 283 287 290 290 290 291
303 303 304 303 304 304 304 303 303 303 301 294 295 298 293 286 291 289 291 293 294 295 294 297 299 294 298 304 301 299 297 298 299 297 295 287 286 283 279 281 275 289 292 292 290 290 290
303 303 304 304 303 304 303 303 303 303 302 295 297 296 295 286 291 293 292 292 295 296 295 296 298 301 304 301 294 291 287 288 290 294 294 293 286 282 281 280 284 288 290 290 289 288 291
303 303 303 304 303 303 303 303 302 302 303 297 296 298 297 292 289 295 293 293 290 291 292 295 301 302 302 295 287 285 285 288 286 289 293 291 288 286 279 278 277 287 293 293 292 284 292
301 302 304 303 302 302 302 302 302 302 302 298 294 299 296 291 297 296 293 292 295 293 290 293 296 298 300 284 284 283 284 291 285 286 285 283 281 281 275 277 283 291 293 293 283 286 293
302 303 302 302 301 301 301 301 301 301 302 298 294 300 299 294 296 300 301 296 296 296 289 294 296 295 288 287 286 285 281 286 284 288 288 288 283 279 278 276 281 293 292 288 291 291 293
302 301 301 301 301 301 301 301 301 301 302 299 292 298 300 297 297 302 301 300 299 301 298 296 295 297 297 292 288 285 284 280 285 282 290 286 289 286 287 287 293 293 292 294 294 294 294

GFSGBSN_sfc_thetae_027.txt.gz
Theta_e
314 315 314 314 316 316 314 315 316 316 317 318 318 319 321 322 322 320 318 317 316 316 315 315 315 315 309 300 297 321 327 325 319 311 305 304 303 302 299 299 298 297 299 300 300 307 309
314 314 315 313 313 313 314 314 315 315 315 315 316 317 318 321 321 319 318 317 316 315 315 315 315 314 305 295 315 321 319 314 312 308 306 305 305 305 302 301 298 300 299 301 304 309 308
315 314 314 314 314 314 312 312 314 314 315 315 315 316 317 319 320 319 318 316 315 315 315 314 314 309 302 298 312 317 314 310 311 308 304 306 308 305 304 301 303 302 298 301 305 307 306
312 313 315 313 313 314 313 312 311 313 314 315 315 314 315 315 317 318 317 315 315 315 315 314 313 306 299 308 311 310 313 311 309 310 308 308 308 305 303 305 301 297 298 297 302 305 306
310 311 312 313 313 312 313 313 312 311 312 314 314 314 314 314 315 316 315 314 314 314 314 314 306 305 297 311 306 310 312 308 306 307 308 308 307 303 302 298 295 296 293 296 298 306 305
309 310 310 312 312 313 312 312 313 312 313 313 313 313 314 314 314 315 313 313 312 311 311 310 307 299 300 300 308 312 311 310 307 305 305 304 301 299 298 297 290 292 293 295 297 301 304
308 308 309 309 311 312 314 313 312 312 311 313 313 313 314 313 314 313 310 307 301 301 304 302 300 297 297 306 311 308 311 309 308 305 300 300 298 295 297 297 297 296 294 293 297 299 302
309 309 308 309 310 311 311 313 312 312 312 312 312 312 312 312 314 312 309 302 303 306 299 305 304 302 303 309 304 308 311 305 303 298 299 297 295 298 297 297 297 296 294 294 297 297 300
309 309 309 308 308 309 310 311 312 311 312 312 312 311 311 311 313 311 306 305 311 311 300 301 304 304 305 307 304 304 307 303 300 297 297 295 298 298 297 296 296 296 294 294 294 295 297
309 308 308 309 309 308 309 310 310 311 311 311 310 311 310 311 309 307 304 311 312 310 291 293 299 304 307 308 302 308 307 304 300 297 297 297 299 297 296 296 297 293 298 296 295 293 291
308 308 308 308 308 308 307 308 309 310 310 310 310 310 310 311 306 304 309 311 311 308 280 296 302 311 308 302 301 302 305 303 297 297 298 296 297 297 296 297 298 296 299 297 296 293 293
308 308 308 308 308 307 307 307 307 308 310 309 309 309 309 308 309 309 311 314 312 292 280 291 302 300 300 300 300 301 302 305 302 298 298 297 300 300 299 299 299 300 297 296 294 293 288
308 308 308 308 307 307 307 307 307 308 308 309 308 308 308 311 305 312 314 309 293 285 295 291 296 297 297 295 297 298 297 296 295 291 292 295 297 300 302 297 299 298 296 289 287 286 286
308 308 308 308 308 307 307 306 306 307 308 309 308 308 309 307 313 311 311 298 287 290 292 298 297 295 293 295 295 296 295 294 295 295 291 290 289 297 301 299 297 296 296 289 282 283 286
308 308 307 307 308 307 307 306 306 306 306 308 307 304 303 306 310 310 303 288 287 292 296 295 295 292 291 294 294 295 294 295 296 296 292 290 290 298 301 301 300 294 293 296 289 288 287
308 308 307 307 307 307 306 306 305 306 306 307 301 299 298 307 310 306 296 289 293 299 301 300 291 294 289 292 292 293 292 296 295 296 299 296 290 297 299 302 300 297 298 291 290 284 282
308 307 307 307 307 307 306 306 305 305 306 307 299 292 300 307 309 299 288 290 294 300 302 299 297 295 293 292 293 292 293 295 297 295 298 296 295 293 298 297 295 295 293 292 293 290 286
306 307 307 307 307 307 307 306 305 305 306 304 296 286 300 305 291 293 289 293 297 297 301 299 301 299 297 295 291 292 293 296 298 298 295 298 295 289 293 298 299 298 295 294 290 287 287
304 304 305 307 306 306 306 305 305 305 305 299 290 292 301 301 285 288 292 293 296 296 297 297 297 300 301 296 290 293 294 299 298 297 297 298 292 288 290 293 297 295 295 294 292 290 287
304 304 305 305 305 306 306 305 305 304 305 299 293 285 294 295 295 291 289 290 291 298 296 298 298 300 299 296 296 294 294 299 299 299 300 300 293 291 287 290 294 292 293 293 294 289 290
303 303 304 304 304 305 306 305 304 304 305 299 293 288 293 285 288 291 291 291 290 291 297 298 296 296 297 292 293 292 297 300 300 300 299 300 292 291 292 292 294 294 293 292 292 293 291
303 303 303 303 304 304 306 305 304 304 304 295 288 289 293 291 291 289 290 290 290 292 294 294 293 296 296 295 296 293 297 298 297 298 297 297 292 291 290 292 292 292 294 293 293 292 292
303 303 303 303 304 304 305 304 304 304 303 294 295 296 294 291 290 288 287 290 292 295 296 298 296 295 294 297 301 300 300 301 301 299 295 295 291 290 287 289 291 287 291 293 294 294 296
302 303 303 303 304 304 304 304 303 304 302 298 296 295 290 286 290 288 290 292 292 294 293 296 299 296 299 304 303 303 300 300 299 298 299 292 291 289 286 286 283 294 296 296 295 295 296
302 303 303 303 304 303 303 304 303 303 303 298 297 296 293 287 290 291 290 290 294 296 295 296 299 302 304 300 296 292 291 292 293 295 296 296 291 286 286 286 289 291 293 294 293 294 297
303 302 303 303 303 303 303 303 303 303 304 298 297 299 296 290 288 293 291 292 290 292 293 296 302 303 302 295 290 288 287 290 290 292 295 292 292 293 284 285 283 293 296 297 297 289 297
302 302 303 303 302 302 303 303 303 303 303 298 294 299 297 290 294 296 292 291 295 294 292 295 296 297 301 289 287 286 288 294 288 288 288 289 288 288 283 287 289 295 296 297 289 293 298
302 302 302 302 302 303 302 303 303 303 303 298 293 299 297 292 294 296 298 296 296 295 290 294 294 295 292 288 288 289 287 291 290 292 291 291 289 288 286 286 286 296 294 293 299 297 299
302 302 302 302 302 302 302 302 302 303 302 300 293 299 300 292 294 302 302 302 300 301 297 297 295 295 296 293 290 289 288 288 289 288 293 291 294 292 293 294 300 297 300 300 299 299 298

GFSGBSN_sfc_thetae_033.txt.gz
Theta_e
312 313 314 316 316 315 314 315 315 315 315 315 315 315 314 315 317 319 319 320 319 319 318 318 317 317 317 310 309 327 327 323 318 316 312 309 308 309 305 306 307 305 306 308 309 309 313
311 312 312 313 313 315 314 315 315 314 313 314 314 315 315 314 315 317 318 318 318 318 318 318 317 315 313 304 316 324 321 317 316 315 313 313 311 312 309 307 306 308 308 308 308 310 313
310 311 311 312 312 313 314 314 313 313 313 312 312 314 314 315 314 315 315 317 317 318 317 317 316 315 309 308 316 322 321 317 317 316 313 314 314 311 312 307 310 308 305 307 308 310 310
310 310 310 311 312 312 312 313 314 313 313 313 312 313 313 314 313 313 314 315 316 317 317 316 316 315 306 316 317 318 321 317 317 317 315 316 315 312 311 312 308 305 306 299 308 310 311
310 311 310 311 311 312 311 312 313 313 313 313 313 312 312 312 313 313 314 315 316 317 315 314 315 312 306 314 309 315 321 313 314 315 315 314 313 310 310 304 301 303 297 300 304 309 310
309 310 311 312 311 311 312 312 311 312 313 312 312 312 312 312 312 312 312 314 318 313 314 317 315 308 311 306 311 312 322 317 312 312 310 309 309 305 305 302 294 297 298 301 300 305 308
310 310 310 311 311 311 310 311 311 311 312 313 312 312 312 311 312 311 313 318 313 311 314 306 308 305 305 311 314 310 318 316 314 311 304 309 303 300 302 304 303 303 300 300 303 307 305
311 310 310 311 311 311 311 311 310 310 311 311 312 311 311 311 312 311 314 311 310 313 302 309 309 310 313 311 307 309 315 310 308 304 308 306 300 305 306 304 302 302 300 300 303 305 303
310 310 310 310 311 311 311 312 311 310 310 311 310 311 311 311 311 310 312 312 319 318 304 305 309 308 308 311 305 307 312 310 306 304 305 302 304 306 303 302 301 301 300 299 299 303 304
310 310 310 310 311 310 310 311 310 310 310 310 310 310 310 310 306 308 311 317 320 319 297 297 304 308 310 309 304 311 313 310 306 302 304 303 307 303 302 301 302 297 303 302 300 299 294
310 310 310 310 310 310 309 309 310 310 309 309 310 309 310 309 309 309 315 320 321 318 283 299 303 313 309 304 304 306 313 310 303 303 304 301 303 302 300 301 304 300 305 302 302 300 299
310 310 310 310 310 309 309 309 309 309 309 309 309 309 309 309 310 309 311 320 318 296 284 296 305 302 303 304 303 307 307 311 310 304 305 304 308 305 304 305 305 306 303 302 302 300 293
309 309 310 310 309 309 309 309 308 308 309 308 308 309 308 310 305 312 312 310 294 286 296 294 298 303 302 300 300 303 302 301 299 296 297 301 302 306 306 302 305 304 300 292 290 291 291
309 309 309 309 309 309 309 309 308 308 308 308 308 308 307 309 312 313 304 297 284 290 292 301 300 302 299 301 300 301 300 298 302 301 297 295 293 302 305 303 301 301 300 293 284 287 292
308 309 309 309 309 309 309 309 308 308 308 307 307 306 305 307 312 310 297 286 288 291 295 295 299 298 298 300 299 300 299 298 301 302 295 296 296 304 305 306 305 301 298 302 295 297 293
308 308 308 308 309 309 308 308 308 308 308 307 304 301 302 308 312 305 291 287 293 297 297 298 292 298 295 297 296 297 298 301 300 303 305 300 295 302 303 306 306 303 305 296 297 288 286
307 307 307 307 308 308 308 308 308 308 308 307 300 294 303 310 309 297 284 289 295 300 299 295 296 296 298 298 298 297 298 301 303 302 304 302 300 299 303 300 299 300 299 300 299 297 290
306 306 306 307 307 308 308 308 308 308 307 304 297 288 306 308 291 291 287 293 296 298 300 299 300 300 297 299 299 297 297 301 305 305 299 303 301 295 298 304 305 303 301 301 295 293 297
305 304 304 307 307 307 307 308 308 307 307 301 291 293 307 306 285 287 293 292 294 294 298 296 297 302 303 299 296 300 300 304 305 303 302 304 298 293 295 299 303 300 303 303 301 301 293
304 304 304 304 306 306 306 307 307 307 307 301 292 286 293 297 297 292 290 290 290 295 296 299 297 300 299 300 303 299 300 303 305 305 304 305 299 296 292 295 299 297 299 301 300 297 296
304 304 304 304 304 305 305 306 307 307 307 301 291 289 294 286 289 294 294 292 290 290 295 299 296 298 297 295 297 298 301 302 303 303 304 304 297 298 298 300 299 298 298 299 298 299 295
303 303 303 304 304 304 304 305 306 307 307 297 286 291 296 293 294 293 292 290 290 292 294 294 295 298 299 296 298 297 300 300 299 303 302 305 297 298 296 299 298 296 298 299 299 300 300
302 303 303 303 303 304 304 304 305 306 306 294 295 300 297 293 291 291 292 292 291 294 296 298 297 298 297 298 304 305 305 303 304 302 301 300 299 296 292 297 297 293 297 298 299 301 300
302 303 303 303 303 304 304 304 304 305 305 297 300 299 296 289 291 291 293 294 293 294 293 296 299 297 302 307 306 303 301 300 302 301 304 300 299 298 294 295 287 297 304 303 301 302 303
303 303 303 304 303 303 304 304 304 304 306 299 302 300 296 291 293 293 292 293 295 295 295 296 298 301 305 303 297 292 292 292 294 297 300 304 301 296 293 291 295 297 301 301 300 299 305
303 303 303 304 303 303 303 303 303 303 304 301 303 306 301 294 292 295 293 294 292 294 294 297 303 308 307 300 295 287 285 288 287 293 302 302 304 299 295 290 287 298 304 307 306 296 306
302 303 303 303 303 303 302 303 303 302 303 301 303 308 302 294 298 298 293 294 297 295 295 297 300 302 305 298 293 290 289 292 287 288 291 295 296 294 295 293 296 303 306 308 295 298 307
301 300 302 302 302 302 302 302 302 303 303 302 303 310 303 296 297 299 301 297 296 298 295 298 297 298 299 294 293 292 293 294 293 294 293 294 294 294 296 293 290 306 305 300 305 310 310
301 301 302 302 302 302 302 302 302 303 302 303 299 307 307 301 298 304 305 306 304 303 300 302 299 299 300 296 298 296 297 298 295 291 299 291 300 298 299 299 308 309 308 311 311 311 312

GFSGBSN_sfc_thetae_036.txt.gz
Theta_e
312 312 312 313 313 314 316 315 316 315 313 313 312 314 315 314 314 315 316 316 318 320 320 320 319 319 316 310 310 323 326 323 316 313 313 309 306 306 304 306 306 303 305 308 308 308 310
311 311 311 312 312 312 312 313 315 314 314 314 312 311 313 315 315 315 314 314 315 317 318 319 319 317 314 303 318 326 321 315 314 312 312 311 309 311 307 307 305 307 307 307 308 308 310
311 311 312 312 312 313 312 313 313 315 314 313 313 311 313 313 314 314 314 314 314 316 318 319 318 316 310 308 317 318 321 315 315 313 311 314 314 309 310 306 309 308 303 305 307 307 308
310 311 311 312 312 312 312 312 313 313 314 314 313 313 312 311 312 313 313 313 314 316 317 318 317 314 304 316 318 317 319 317 317 316 315 316 315 310 308 310 307 303 303 298 306 308 309
310 311 311 312 312 311 312 312 312 312 313 313 313 313 312 311 310 312 313 312 312 315 318 317 314 312 303 316 312 314 317 315 314 314 315 315 312 307 307 303 299 301 295 298 301 309 309
310 310 312 312 312 312 312 312 312 312 312 312 313 313 312 311 311 311 311 310 312 316 317 318 315 306 309 305 312 313 315 317 311 311 309 309 306 302 303 300 292 296 297 299 300 305 307
310 310 310 312 312 312 311 311 311 311 311 311 312 312 313 311 311 311 310 310 309 312 314 308 306 303 305 313 313 310 312 314 312 308 301 305 300 296 300 303 302 301 300 299 302 306 304
311 310 310 311 312 312 311 312 311 311 311 311 311 311 312 312 311 311 309 305 308 313 302 308 310 309 312 314 305 309 313 309 307 301 304 302 298 303 305 304 302 300 298 298 303 306 304
310 310 310 310 310 311 311 311 311 311 311 310 310 311 310 311 311 308 306 306 315 317 302 300 304 304 306 309 306 307 308 309 305 302 303 300 303 307 304 302 300 299 298 298 299 302 304
309 309 310 310 310 311 311 311 311 311 310 310 310 310 309 310 305 307 304 311 314 317 295 293 299 306 307 307 302 311 311 308 305 301 302 302 306 304 302 300 300 296 302 301 301 299 293
309 309 310 310 310 310 310 310 310 310 310 310 309 310 308 309 307 307 314 318 320 315 280 296 300 312 309 304 305 305 311 308 301 302 303 300 302 301 300 300 302 299 304 302 301 298 298
309 309 310 310 310 310 310 310 309 309 310 310 310 310 309 306 308 309 314 315 316 293 281 293 304 302 302 304 303 306 305 309 308 302 304 302 307 305 303 304 304 305 302 302 301 298 291
308 309 309 309 310 310 310 310 309 309 309 309 309 309 308 306 303 312 313 310 292 284 294 292 298 302 300 300 300 301 300 299 297 294 296 300 301 305 306 300 304 303 299 291 289 289 290
307 308 308 309 309 309 309 309 309 309 309 309 309 308 307 305 310 313 306 296 282 288 291 299 298 300 298 300 300 299 299 296 301 300 296 294 292 300 304 301 299 300 298 292 285 287 291
307 307 308 308 309 309 309 309 309 309 308 308 308 306 305 307 309 309 297 284 286 288 293 293 296 295 297 300 300 298 298 298 300 301 295 294 294 303 304 304 303 300 296 301 295 297 291
307 307 307 307 308 308 308 309 309 309 309 308 304 302 302 308 308 306 291 285 290 294 294 295 290 294 292 298 297 297 296 300 300 303 304 300 294 301 303 305 304 301 303 295 296 287 285
305 306 306 307 307 307 308 308 309 309 308 308 301 294 303 307 308 295 285 288 292 296 296 293 292 292 293 294 298 297 297 300 303 302 304 302 299 298 302 299 297 299 297 299 300 296 289
304 304 305 306 306 307 307 308 308 308 308 305 298 287 303 308 290 290 287 290 295 294 297 296 296 295 293 295 296 298 297 300 305 304 299 302 299 293 296 303 304 302 300 299 293 292 296
304 304 305 306 306 306 307 307 307 308 308 302 293 292 304 303 283 285 290 292 292 293 294 294 294 297 298 296 294 298 300 305 306 304 300 302 296 291 294 298 302 299 300 301 301 300 295
303 304 305 305 306 306 306 307 307 307 308 303 293 285 293 296 296 290 288 290 289 295 294 295 294 297 296 296 299 296 296 303 307 305 303 305 299 294 290 294 299 297 298 300 300 295 295
303 304 305 304 305 305 305 305 307 307 308 302 292 287 293 286 288 292 292 291 289 289 294 295 294 294 294 291 293 293 296 299 304 305 304 304 295 297 298 299 299 298 297 298 297 299 295
304 304 304 304 304 304 304 305 306 307 307 300 285 290 295 292 292 291 291 290 289 291 292 290 291 293 296 293 296 294 298 298 299 304 302 305 295 297 295 299 298 296 298 299 298 298 298
303 303 303 303 303 304 304 304 305 306 306 298 293 299 296 292 291 288 289 292 292 294 295 295 294 294 294 296 302 302 303 301 300 300 300 300 298 295 291 297 295 290 296 298 299 300 300
302 303 303 303 303 303 303 304 304 305 305 298 293 298 292 288 291 290 291 293 293 293 293 296 297 295 299 307 307 304 300 300 299 299 301 297 299 297 292 292 284 296 303 301 299 300 302
302 302 303 304 304 303 303 303 303 304 304 300 296 297 293 288 292 292 292 293 294 295 295 295 297 300 304 303 295 291 291 292 293 296 296 298 297 294 290 290 294 296 300 299 299 298 303
303 304 304 304 303 303 303 303 303 303 304 302 297 302 299 291 291 295 292 294 291 292 293 296 301 303 304 297 293 286 284 288 286 288 296 296 300 296 294 288 285 297 302 305 304 293 305
303 303 303 303 303 303 303 302 303 303 304 302 298 300 300 293 297 297 292 292 296 294 293 296 298 299 303 291 286 288 287 291 286 287 287 287 292 292 291 290 295 302 304 305 293 296 308
303 301 302 302 303 303 302 302 302 303 303 302 298 303 301 295 298 300 299 296 296 296 292 297 296 296 298 291 290 291 291 291 290 292 293 289 289 292 294 289 287 306 303 298 304 311 311
301 301 301 301 302 302 302 302 302 303 303 302 297 304 309 299 298 304 304 305 303 302 299 300 297 297 296 293 296 296 296 296 294 288 298 289 294 294 294 296 306 306 305 310 313 312 312

GFSGBSN_sfc_thetae_039.txt.gz
Theta_e
311 312 312 312 312 313 313 314 314 315 315 314 312 312 312 312 314 315 314 314 314 315 316 318 319 320 313 307 308 320 326 324 315 311 308 307 302 300 297 301 302 298 299 302 304 304 304
312 312 312 312 311 312 312 312 313 313 314 314 314 312 311 311 312 312 313 313 313 314 315 317 319 318 310 301 314 323 319 314 311 306 306 308 304 305 303 302 300 302 303 302 303 302 306
311 311 311 313 313 313 312 313 313 313 313 313 314 313 313 311 311 311 312 313 313 313 314 316 318 316 307 303 313 316 317 312 310 308 305 309 308 304 304 301 306 305 299 300 301 301 305
311 311 311 312 312 312 312 312 312 313 312 313 313 313 313 312 312 311 311 312 312 313 313 315 318 311 302 313 312 313 313 312 313 311 310 311 310 305 303 304 303 299 297 292 299 305 305
310 310 311 312 312 312 312 312 312 312 312 312 313 312 312 312 311 311 311 311 311 312 313 315 311 306 302 316 309 312 313 311 314 312 310 313 308 302 302 296 293 295 289 291 296 305 305
310 310 311 312 312 312 312 312 312 312 312 312 312 312 312 312 312 311 310 311 311 311 314 316 314 302 308 304 310 312 311 311 311 308 306 304 300 295 294 291 286 290 290 292 293 302 304
310 311 311 312 312 312 312 312 312 311 311 312 312 312 312 311 311 311 308 304 303 305 309 305 304 301 305 310 313 308 310 307 310 304 297 300 293 290 293 296 298 297 295 293 297 304 303
309 309 310 310 311 311 311 312 312 311 311 311 311 311 311 311 311 311 306 299 303 303 297 309 310 309 312 313 305 307 308 302 304 298 299 297 293 298 301 300 299 299 295 292 297 304 301
310 309 310 310 310 310 310 311 311 311 311 311 311 310 311 310 310 306 301 301 307 304 297 300 305 302 302 305 302 303 304 302 302 298 297 294 297 302 300 299 298 298 294 293 295 299 302
309 309 309 309 310 310 311 311 311 311 310 310 310 310 309 308 303 302 299 309 312 307 291 293 296 299 302 302 299 306 309 304 302 298 299 297 302 301 300 299 299 293 299 298 297 294 289
308 308 309 309 310 310 310 310 310 310 310 310 310 310 309 309 301 299 307 308 309 307 272 294 296 305 302 298 301 302 308 303 299 300 299 296 298 298 298 299 300 296 301 300 298 293 291
307 308 308 309 309 309 309 309 310 310 310 310 310 310 309 304 302 303 307 307 307 289 278 291 300 299 299 298 299 302 301 304 303 300 301 299 304 301 299 303 301 301 300 299 297 293 284
306 307 308 308 308 309 309 309 310 310 310 310 309 309 307 304 296 306 309 304 287 279 290 287 295 299 297 297 297 298 297 295 293 290 291 296 297 301 303 298 300 298 294 286 283 283 282
306 306 307 307 308 308 308 309 309 309 309 309 309 308 307 304 302 305 305 293 280 286 287 295 294 297 295 297 297 298 296 292 296 296 291 290 288 297 302 299 296 296 295 286 280 280 286
305 306 306 306 307 307 308 308 309 309 309 308 308 304 303 304 303 306 296 282 283 286 290 289 290 288 289 297 297 296 294 293 296 297 291 290 291 300 301 302 300 295 291 297 290 293 286
305 305 305 305 306 307 307 307 308 309 309 308 302 300 299 305 306 301 290 284 287 292 292 291 285 289 286 292 294 294 294 297 296 299 300 295 290 298 301 302 301 297 300 291 291 283 281
304 305 305 305 305 306 306 307 308 309 309 308 301 293 301 305 303 293 284 284 288 294 295 291 287 287 288 289 290 291 292 298 298 299 300 297 293 293 299 296 295 295 293 295 296 292 284
303 304 304 304 305 305 306 307 307 308 308 306 299 288 301 304 289 289 285 288 293 291 295 293 293 290 289 290 289 290 294 298 303 301 296 298 295 289 292 300 301 298 296 295 288 288 291
303 303 304 304 304 305 305 305 306 307 308 303 294 292 302 300 283 283 288 288 291 290 291 291 291 292 292 290 286 295 297 302 303 299 298 298 293 286 289 295 298 296 297 298 296 293 289
303 303 303 304 304 304 305 305 306 307 308 303 294 285 293 294 292 286 285 286 286 293 292 292 291 292 291 289 292 293 296 300 303 301 302 302 295 290 286 290 295 293 296 297 295 287 288
302 302 303 303 304 304 305 305 305 306 307 302 292 286 291 285 286 288 288 288 286 286 292 292 289 289 289 285 288 290 295 298 301 301 302 301 292 293 294 296 297 296 296 296 294 295 291
302 302 303 303 304 304 305 305 305 306 306 299 285 287 292 289 290 288 289 285 285 288 289 289 287 290 290 287 288 287 295 296 296 299 297 301 292 293 291 295 296 294 296 297 296 295 297
302 303 303 304 303 304 304 304 304 305 305 298 297 294 293 290 289 287 286 287 287 290 291 293 291 289 288 290 294 299 300 301 300 295 292 295 292 291 286 293 292 286 293 295 296 298 297
303 303 303 303 303 303 304 304 304 304 304 300 293 296 290 285 287 287 289 289 289 290 289 293 293 290 293 301 302 300 299 299 300 299 299 290 289 291 284 289 282 293 299 298 296 297 298
302 302 303 303 303 303 303 303 303 304 304 300 296 295 291 285 289 289 289 289 290 292 291 292 295 296 297 297 292 288 285 288 292 296 297 296 290 286 285 286 291 294 296 296 294 294 299
302 303 303 303 303 303 303 303 303 303 304 301 296 298 295 288 288 292 289 290 287 288 289 292 297 298 295 290 287 281 280 287 286 289 297 294 291 286 286 284 281 292 299 301 300 288 300
302 303 303 303 303 303 303 303 303 303 304 301 298 299 295 286 293 294 290 289 293 291 288 291 292 293 295 283 282 282 282 290 283 283 284 284 284 283 283 282 287 298 301 303 289 289 302
302 302 303 303 303 303 303 303 303 303 303 301 298 299 296 290 294 297 298 294 293 293 287 290 291 292 288 283 284 283 282 288 288 290 287 285 284 285 287 283 282 299 300 294 296 301 304
303 302 302 302 302 302 302 302 303 303 303 302 295 299 299 295 294 301 301 303 299 298 294 294 293 293 292 287 287 287 281 285 286 282 294 285 289 287 291 289 298 300 301 303 305 304 305

GFSGBSN_sfc_thetae_042.txt.gz
Theta_e
312 312 312 312 312 311 311 312 314 314 314 314 314 314 314 314 312 312 311 312 313 314 313 313 315 316 313 305 305 315 326 323 315 310 306 305 303 299 294 296 299 297 298 300 302 302 308
311 311 312 312 312 312 312 312 313 313 313 314 314 313 314 314 314 313 312 312 312 313 313 313 314 317 308 298 309 314 317 313 309 305 304 306 305 302 299 300 297 301 301 300 301 300 311
311 311 311 312 312 312 312 312 312 313 313 313 313 313 313 313 313 313 312 312 311 312 312 313 313 314 305 301 310 309 313 309 308 307 302 305 306 302 302 299 303 302 297 298 299 299 304
311 311 311 312 312 312 312 312 313 311 312 313 313 313 313 312 312 312 312 311 311 312 312 313 313 311 300 312 311 310 310 309 311 309 307 307 307 304 302 302 300 297 295 290 296 302 303
310 310 310 312 312 312 312 312 312 313 313 312 313 312 312 312 311 311 311 311 311 312 312 313 310 306 298 315 309 311 309 307 310 310 308 310 306 301 300 294 290 292 287 290 293 301 303
310 310 311 311 312 312 313 312 312 312 313 312 312 312 312 312 311 310 310 310 310 311 310 314 313 301 305 300 308 309 309 308 307 308 306 302 298 295 292 290 284 288 288 287 290 299 301
309 310 310 310 311 311 311 312 312 312 312 312 312 312 311 311 311 310 308 302 298 301 306 304 304 301 302 307 314 307 309 306 305 303 296 298 292 290 292 293 295 294 292 290 294 301 301
308 309 309 309 310 311 311 311 311 311 311 312 311 311 311 311 310 310 306 297 298 297 291 301 305 307 309 310 304 307 308 300 300 296 297 295 291 296 298 297 295 295 292 292 295 300 299
307 308 308 309 310 310 310 311 311 311 311 311 311 311 311 310 309 305 301 300 305 304 292 297 303 303 306 308 303 303 304 300 299 297 295 292 295 300 298 296 294 294 293 293 292 297 296
307 308 307 308 308 309 310 310 310 310 311 311 311 310 309 308 302 302 298 306 307 307 288 290 295 298 302 301 296 304 305 300 298 297 297 294 299 297 296 295 296 292 299 296 294 292 287
306 307 306 307 307 308 309 309 310 310 310 310 310 310 309 309 299 297 304 304 308 300 270 289 295 305 302 296 297 299 304 300 295 298 297 294 296 295 294 296 299 295 300 296 296 292 289
305 305 305 306 307 308 308 309 309 310 310 310 310 310 309 304 300 301 304 305 305 286 274 288 296 294 294 295 297 300 299 303 301 298 299 297 300 298 298 301 300 301 297 296 295 291 284
304 304 304 305 306 307 308 308 308 309 309 310 309 309 308 304 294 300 303 302 287 278 289 286 293 297 294 291 293 296 295 293 291 288 290 295 297 300 300 295 299 296 291 285 283 283 282
303 303 304 305 306 306 307 307 308 308 309 309 309 308 307 305 301 301 301 292 280 284 284 291 291 291 292 294 292 294 292 290 293 292 288 287 285 295 299 296 294 294 292 284 280 279 284
302 303 304 305 305 306 306 307 307 308 308 308 308 305 303 303 301 304 293 283 283 286 290 288 288 285 287 291 294 293 292 291 293 294 288 287 288 297 299 300 298 294 289 295 288 289 284
302 303 304 304 305 305 305 306 307 307 308 308 303 301 299 304 301 299 288 283 286 292 292 291 284 287 284 287 289 289 291 295 295 296 297 293 287 296 298 299 299 296 298 288 288 281 280
302 303 304 304 304 304 305 305 306 307 308 308 302 294 301 303 301 292 282 284 288 293 292 289 287 286 286 287 289 289 289 295 297 296 298 294 292 291 295 293 292 293 291 293 292 289 282
302 303 303 303 304 304 305 305 306 306 307 305 299 287 301 304 288 288 283 287 293 290 293 291 292 290 287 289 288 288 290 294 302 301 295 297 291 287 290 297 299 296 294 294 287 286 287
302 302 303 303 303 304 304 305 305 306 307 302 293 292 301 298 282 283 287 287 289 289 290 290 289 291 291 288 286 289 292 303 303 301 297 298 291 283 287 292 295 292 294 296 294 291 287
302 302 302 303 304 304 304 304 305 305 306 302 292 284 292 294 290 286 284 284 285 291 289 290 290 291 288 286 289 287 291 299 303 302 302 302 295 290 284 288 292 290 294 295 294 285 286
301 302 302 303 303 303 304 304 304 305 306 301 292 285 290 285 286 287 287 286 284 284 290 292 288 288 287 283 285 285 290 296 301 301 301 300 291 292 293 295 294 293 294 294 292 292 288
301 301 302 302 303 303 304 304 304 304 305 298 285 287 291 288 290 287 287 284 284 286 287 286 287 289 288 285 286 284 288 289 293 298 296 297 290 289 287 294 294 291 293 295 295 294 293
301 302 302 302 303 304 304 304 304 305 304 296 297 294 293 290 289 286 285 285 286 288 290 290 290 289 286 288 291 294 294 296 296 294 291 293 289 286 282 290 291 286 291 294 295 296 296
301 302 302 303 303 304 304 304 304 304 304 300 297 296 289 285 287 286 288 288 287 289 286 291 292 288 292 296 299 297 296 296 297 296 296 290 288 287 282 286 280 292 296 297 295 296 296
301 302 303 303 303 303 303 303 303 304 304 299 298 295 291 284 288 288 288 288 289 290 289 289 291 294 296 292 288 287 283 286 290 295 295 295 289 284 282 282 288 291 295 293 292 293 297
302 302 302 302 302 302 302 303 303 303 304 301 299 299 293 288 287 291 288 289 286 286 287 289 296 298 295 289 286 280 277 283 284 288 297 292 292 286 283 279 280 289 297 301 299 287 297
301 301 302 302 302 302 303 303 303 303 304 301 299 299 293 285 292 292 288 288 291 289 286 288 290 292 295 284 282 280 279 288 282 282 284 284 284 283 282 281 286 296 297 301 289 289 300
301 301 301 302 302 303 303 303 303 303 303 301 297 299 294 288 291 295 296 291 291 290 286 288 289 291 289 284 283 281 279 285 284 288 285 284 282 281 284 282 281 299 298 292 296 301 304
302 302 302 302 302 302 303 303 303 303 303 303 295 299 301 293 293 299 298 300 297 296 293 292 291 291 292 288 285 283 280 278 283 279 292 284 288 285 287 286 298 301 300 302 304 303 303

GFSGBSN_sfc_thetae_045.txt.gz
Theta_e
311 312 312 312 312 312 312 312 312 313 313 312 313 313 312 313 313 314 313 313 313 313 313 312 313 314 311 302 303 312 325 323 314 307 303 302 300 297 293 294 296 294 297 300 299 300 304
311 311 311 311 312 311 311 311 312 312 313 313 313 313 313 312 312 313 313 313 313 313 312 312 312 313 306 295 306 310 316 312 306 304 303 303 301 301 297 296 296 299 299 299 299 306 311
310 311 311 312 312 312 312 312 313 313 312 311 312 313 313 313 313 313 312 312 312 312 312 312 312 309 304 299 308 308 308 306 306 304 300 303 305 300 300 297 301 300 295 296 297 299 306
309 310 310 311 312 312 312 312 313 313 313 313 310 312 312 312 312 312 311 311 311 312 313 313 312 309 298 310 309 309 308 307 309 308 305 305 305 302 300 301 298 294 293 289 294 301 301
308 309 310 311 312 312 312 312 313 313 313 313 313 312 311 311 311 311 310 310 311 312 313 312 307 305 297 313 308 311 309 304 307 308 306 309 303 298 298 292 289 290 285 288 293 298 300
307 308 310 310 310 311 311 312 312 313 312 313 313 312 312 311 311 310 309 310 310 310 309 310 312 299 302 300 306 309 309 307 304 306 304 302 297 293 291 289 283 285 287 286 288 293 299
307 308 308 309 309 310 310 311 312 312 312 312 312 312 312 311 311 310 307 302 294 297 299 300 301 301 303 308 312 307 308 304 303 302 295 296 291 288 290 292 292 292 289 288 291 295 297
306 306 307 309 309 309 310 311 311 311 311 311 311 311 311 311 311 310 305 296 297 298 292 300 298 300 307 309 302 305 307 298 298 293 296 293 290 294 295 295 293 292 289 289 293 296 296
306 306 307 308 308 308 309 310 310 310 311 311 311 311 311 310 310 303 300 300 306 305 293 296 299 298 298 305 301 301 305 299 296 294 294 291 294 298 296 293 292 292 290 290 291 294 295
306 305 306 307 307 307 307 308 308 310 310 310 310 311 310 309 300 300 298 303 304 306 285 287 293 297 301 303 297 305 305 300 296 293 295 293 298 296 294 293 293 288 295 295 293 290 286
305 305 305 306 306 306 307 307 308 308 310 310 310 310 309 309 297 296 300 303 304 302 270 288 294 301 301 294 295 298 304 298 293 296 296 293 293 293 293 294 296 292 297 295 294 289 288
304 303 304 304 304 306 307 307 308 308 309 309 310 310 309 304 299 300 302 302 303 287 273 286 294 294 294 295 294 298 296 301 300 295 296 296 298 296 295 297 297 299 295 294 292 289 283
304 304 304 303 304 305 306 307 307 308 308 309 309 309 307 303 294 299 300 298 287 279 288 284 288 294 292 291 292 295 293 293 291 288 288 293 295 297 299 294 297 294 289 282 281 281 282
303 303 303 302 303 305 305 306 307 307 307 308 308 308 307 304 301 300 297 291 280 285 284 289 288 288 291 291 291 293 291 288 292 291 288 286 284 294 298 296 292 292 290 283 279 279 282
302 303 302 302 303 304 305 305 306 306 307 307 308 305 303 301 300 300 289 282 282 286 289 287 288 284 285 290 293 291 289 289 291 292 287 285 286 295 297 298 297 292 288 293 286 286 282
302 302 301 302 303 304 304 304 305 306 307 307 301 301 300 302 302 296 285 283 287 292 291 290 283 286 283 285 288 290 290 293 292 294 296 291 285 294 296 297 296 294 295 286 286 280 279
302 301 301 301 303 303 304 304 305 305 306 306 300 294 301 303 303 292 280 282 287 291 292 288 286 284 285 285 286 287 289 295 298 297 296 292 289 289 294 291 290 291 289 290 290 286 282
301 300 300 301 302 303 303 304 305 305 305 303 297 286 301 303 287 288 282 285 291 290 292 290 290 289 287 288 285 286 287 290 301 299 294 297 289 284 289 295 296 293 291 291 286 284 285
301 300 300 301 302 302 303 304 304 304 305 300 290 291 301 299 283 283 287 285 288 288 289 289 288 290 290 286 283 287 289 300 302 299 295 298 291 283 285 290 292 290 291 292 292 289 286
300 300 300 300 302 302 303 303 304 304 305 299 289 284 291 294 290 286 284 284 284 290 288 290 289 289 287 285 287 285 288 293 302 300 302 300 293 290 285 287 291 289 292 293 292 285 284
300 300 301 301 301 302 303 303 304 304 304 298 290 284 291 284 286 287 287 286 284 284 289 290 286 287 285 282 283 283 287 292 298 301 300 297 287 290 290 291 292 291 292 293 290 291 287
299 300 300 301 301 302 302 303 303 304 304 294 285 287 291 289 290 287 287 284 284 285 287 286 285 288 287 284 285 283 286 286 289 296 294 297 287 289 285 292 290 288 291 292 293 292 290
299 300 300 300 301 302 303 303 303 303 302 293 293 294 292 290 288 286 285 286 286 288 289 289 288 286 285 287 289 290 290 291 292 292 291 291 288 286 281 286 288 282 288 291 293 294 294
300 300 300 301 302 302 303 303 303 303 303 297 296 295 288 284 287 286 288 288 287 288 285 289 290 287 290 294 294 296 295 295 295 295 294 288 286 285 281 283 276 287 293 293 293 295 296
300 300 301 302 302 302 302 303 303 303 303 299 299 295 290 284 288 288 289 289 289 289 288 288 290 293 296 291 287 284 282 285 289 294 292 292 286 282 278 279 284 286 291 292 289 290 297
300 301 301 301 302 302 302 302 303 303 303 301 299 299 294 287 285 291 288 290 286 285 285 288 294 295 294 289 285 280 276 281 282 289 295 292 290 281 283 276 274 285 293 298 298 288 297
300 300 301 302 302 302 302 302 303 303 303 300 298 300 294 285 291 292 288 287 291 288 285 287 289 290 294 283 282 280 279 285 280 281 284 285 285 283 283 281 282 292 296 300 286 287 299
300 301 301 301 301 301 302 302 302 303 303 300 296 301 294 288 289 295 295 292 291 290 284 288 289 289 288 282 283 281 277 282 282 286 284 283 282 281 284 281 279 296 298 291 295 299 301
301 301 301 301 302 302 301 302 302 303 303 302 295 300 301 292 289 296 297 300 298 296 292 291 290 290 290 286 284 282 278 277 282 279 288 281 285 282 285 284 294 300 299 301 301 301 302

GFSGBSN_sfc_thetae_048.txt.gz
Theta_e
310 310 310 311 311 312 311 311 311 312 311 312 312 312 312 312 311 312 313 312 313 313 313 313 312 313 308 300 299 309 324 325 314 305 301 301 298 295 291 292 294 292 295 298 298 298 298
308 310 310 311 311 311 311 311 311 312 312 311 311 312 312 311 311 311 312 312 311 312 312 312 313 312 304 292 303 308 307 311 305 302 301 301 300 299 295 294 294 297 297 297 297 297 308
308 308 309 310 311 310 311 312 312 312 312 312 313 312 311 311 312 312 312 311 311 310 311 311 312 308 300 296 305 306 307 304 304 302 299 302 302 298 298 295 299 298 294 295 295 295 303
308 308 309 310 311 312 311 311 312 312 312 312 313 313 312 311 311 312 311 311 310 310 311 311 312 306 296 309 307 308 305 305 307 305 304 304 302 300 297 299 296 293 292 287 292 298 300
308 307 308 309 310 310 311 311 312 312 312 313 313 312 312 312 311 311 311 310 310 310 311 312 305 302 295 311 306 309 308 302 303 306 305 308 302 297 296 291 288 288 284 286 290 295 297
307 307 308 307 308 309 310 310 311 312 312 312 312 312 312 312 311 310 310 309 308 309 308 308 308 295 298 295 304 307 308 306 301 303 302 300 297 291 290 289 283 285 285 285 287 290 296
306 307 307 306 308 309 309 309 311 311 311 311 311 311 311 311 311 310 306 300 294 294 297 297 298 297 301 309 311 306 306 303 300 300 294 296 291 288 289 291 290 289 287 286 288 292 292
306 306 306 306 306 308 308 308 309 310 310 310 311 311 311 311 311 310 302 296 298 298 291 298 298 298 301 305 299 299 306 297 296 292 295 291 290 293 295 293 292 290 287 287 291 294 292
304 305 306 305 306 307 307 307 308 309 309 310 310 311 311 310 310 302 297 300 304 302 292 294 298 297 298 299 295 297 303 298 294 292 294 291 292 296 294 292 290 289 287 288 289 291 292
305 305 305 305 304 307 306 306 306 307 308 309 309 310 310 309 300 298 295 303 303 303 285 286 293 296 299 300 294 302 304 299 295 292 294 293 297 294 292 291 292 287 293 292 291 288 284
305 304 304 304 304 305 305 305 306 306 307 309 309 310 309 309 297 295 298 303 302 302 270 287 293 300 301 293 292 297 303 298 293 294 295 291 293 293 291 292 294 291 294 292 292 288 285
304 304 304 303 303 304 303 304 305 305 306 308 309 309 309 304 303 300 301 300 301 284 273 283 292 293 294 294 293 297 296 299 298 295 295 294 297 295 295 296 296 297 293 292 290 287 281
303 304 304 303 303 302 303 304 305 305 305 307 308 308 306 304 297 298 298 298 284 277 288 284 286 291 291 290 290 292 290 290 289 286 286 291 294 297 297 293 294 293 288 282 280 280 280
303 303 303 303 303 302 302 303 305 305 305 306 307 307 305 306 301 300 296 289 278 284 284 289 289 289 288 291 289 292 288 285 291 290 287 285 282 293 297 295 292 290 289 282 279 278 281
301 302 302 302 303 303 302 302 304 304 305 306 306 299 299 303 302 301 290 279 280 284 288 286 287 284 285 288 291 290 289 287 290 293 288 285 286 294 296 297 297 291 286 292 285 284 281
301 301 301 302 302 302 302 302 303 303 304 306 297 298 297 304 304 298 286 280 285 290 290 288 282 285 282 284 286 287 289 293 291 293 294 290 285 293 295 296 295 293 294 286 284 280 279
300 301 301 302 302 301 301 301 302 303 304 305 297 291 301 304 303 292 281 282 285 289 290 287 285 284 284 283 285 284 286 294 297 296 293 291 288 288 293 290 289 289 288 288 288 284 280
299 300 300 301 301 301 301 301 302 302 304 301 294 285 301 303 288 287 283 285 290 288 292 289 289 287 285 286 284 284 285 292 300 299 292 295 288 282 287 293 294 291 289 290 283 283 284
299 300 300 300 300 300 300 301 301 303 303 297 289 290 301 300 283 283 287 286 286 287 288 288 287 288 289 285 281 286 290 297 297 298 295 296 290 282 284 289 293 290 290 292 289 286 282
299 299 299 299 300 299 300 301 301 303 304 298 288 282 291 294 292 287 285 284 283 288 287 288 288 289 286 285 287 284 286 292 298 299 301 299 292 287 283 287 290 287 289 291 290 282 282
299 299 300 299 299 299 300 300 301 303 303 298 288 284 290 284 285 287 287 286 283 283 288 288 285 286 285 281 282 282 287 289 292 299 297 295 286 289 292 292 291 290 288 289 287 288 284
298 299 299 299 299 299 300 300 301 302 303 294 285 286 289 289 289 287 287 284 284 285 286 285 284 287 286 283 284 282 285 285 285 290 292 294 284 288 285 291 290 287 289 289 290 290 289
298 298 298 299 300 299 299 300 301 302 302 293 293 294 291 287 288 285 285 286 285 288 288 288 287 285 284 286 288 289 288 289 288 286 287 289 287 284 280 286 286 281 285 289 289 290 290
297 298 298 299 299 299 300 301 301 302 302 297 294 293 287 282 285 286 287 288 287 288 285 289 290 286 290 292 292 290 289 288 288 288 291 287 285 283 280 282 276 284 291 291 289 291 293
298 299 299 300 300 301 300 301 301 302 303 298 297 293 288 282 286 287 288 288 289 290 288 288 290 292 293 291 286 283 281 285 287 291 290 291 284 279 276 278 282 285 287 288 289 287 293
299 299 300 300 300 300 300 301 302 302 303 299 297 298 293 287 284 289 288 290 286 286 286 288 293 295 292 286 283 279 275 280 282 287 292 289 287 284 282 275 271 282 291 297 295 283 295
299 300 300 301 300 300 301 301 301 302 303 300 298 299 294 285 290 291 287 288 291 288 285 287 289 290 293 284 281 279 278 284 279 282 284 284 285 283 282 280 281 289 293 297 282 283 296
299 300 300 300 301 301 301 301 301 301 302 300 297 301 295 287 291 294 294 291 291 290 284 288 287 288 287 282 281 280 278 282 281 284 283 282 279 281 283 280 276 292 295 288 292 297 296
300 300 300 300 301 301 301 301 301 301 301 301 293 300 300 291 291 296 297 299 297 295 292 291 287 289 288 283 283 281 277 276 281 277 286 281 284 281 283 283 290 296 297 300 299 296 298

GFSGBSN_sfc_thetae_051.txt.gz
Theta_e
309 309 310 309 310 311 311 311 311 312 311 311 311 311 311 311 311 312 313 312 312 311 310 311 312 313 308 299 296 308 317 322 319 309 305 304 303 300 297 298 298 296 298 299 302 301 301
308 308 308 308 309 310 310 311 311 311 311 312 312 312 312 312 311 312 312 312 312 311 311 310 311 312 304 292 304 309 308 308 310 306 304 304 303 303 299 298 298 301 299 301 302 302 309
307 308 308 309 309 310 311 311 311 311 311 312 313 313 313 313 313 313 312 312 311 311 311 310 310 309 299 295 306 307 308 306 307 305 303 305 306 303 302 299 302 301 298 300 300 301 305
307 307 307 308 310 310 310 310 310 311 312 312 312 312 312 312 312 312 312 311 311 311 311 311 310 306 295 307 310 308 308 306 307 307 306 307 307 304 302 303 300 298 297 294 298 302 304
308 307 306 308 308 308 310 310 311 310 311 311 311 312 311 311 311 311 311 311 310 310 312 311 306 301 292 310 306 310 308 303 304 306 307 308 305 301 301 297 295 294 291 291 294 300 303
307 307 307 307 307 307 309 309 310 310 310 310 310 311 311 311 311 310 310 310 309 309 309 308 306 295 299 294 305 308 309 308 302 303 302 303 300 297 295 295 288 290 290 291 292 298 301
307 306 306 306 306 306 308 308 308 309 309 309 309 310 311 311 311 310 307 301 297 296 298 296 297 296 299 306 310 308 309 305 303 301 297 300 295 291 294 297 295 294 291 291 293 297 296
306 306 305 306 306 305 307 307 307 308 308 308 309 310 310 311 311 309 303 298 297 297 290 298 298 297 301 304 296 302 307 299 298 294 298 295 292 297 297 296 295 294 292 292 294 296 296
305 305 304 305 306 304 305 307 306 306 306 307 308 309 310 310 309 301 299 299 303 302 292 294 298 296 297 299 295 296 303 300 296 293 295 294 295 298 296 294 292 293 292 292 292 294 297
305 306 305 304 305 305 304 305 305 305 306 306 308 309 309 309 300 299 296 303 304 302 286 287 293 296 298 299 293 300 303 301 297 293 295 295 298 295 294 293 294 290 295 294 293 292 288
304 305 305 305 304 304 303 303 304 304 305 305 307 308 308 309 301 298 300 304 303 301 273 287 292 301 300 294 293 297 302 299 295 294 296 293 294 294 292 294 296 293 296 295 294 292 291
303 304 304 304 304 304 304 303 303 304 304 305 306 307 308 304 304 303 303 301 301 285 274 285 293 293 292 295 294 298 298 301 300 296 297 295 299 298 297 297 297 298 296 295 294 292 286
302 303 304 303 304 304 303 302 303 303 304 304 305 306 305 306 298 301 302 297 284 277 289 285 287 290 290 290 292 293 292 292 290 287 289 294 295 298 299 295 297 296 293 286 285 285 285
302 302 303 303 303 303 303 303 303 303 303 304 305 306 303 305 304 304 298 289 277 283 285 290 289 289 287 290 291 291 289 288 293 292 289 287 285 295 299 296 293 293 293 287 281 283 286
302 302 301 301 302 302 303 302 302 302 303 304 304 299 299 302 305 302 292 279 281 284 288 287 288 285 285 288 289 290 289 288 290 294 289 287 287 296 298 299 299 293 290 295 289 288 287
301 301 301 301 302 302 303 302 301 301 302 303 297 295 295 302 305 299 287 281 284 290 290 288 283 285 282 285 285 286 289 296 294 295 296 292 287 294 296 298 298 296 297 289 289 282 281
300 301 300 300 301 302 302 301 301 301 302 303 295 289 298 303 303 292 282 283 285 289 289 286 285 284 285 285 285 285 287 293 296 298 295 294 291 290 295 293 292 293 292 292 292 289 284
300 299 299 300 300 301 301 301 301 301 302 299 294 283 300 303 287 288 284 286 289 287 291 289 289 287 286 286 284 285 286 292 295 300 294 297 290 286 289 295 296 294 293 293 288 286 287
299 299 300 300 300 300 300 301 300 301 301 295 289 288 300 299 281 283 288 287 287 287 288 288 287 289 290 286 282 286 289 295 295 299 296 298 291 285 287 291 295 292 294 293 292 289 286
299 299 299 299 299 299 300 300 300 301 301 297 289 282 289 292 291 286 285 284 284 288 287 289 287 289 287 285 288 285 287 292 294 297 300 300 293 288 284 287 292 289 291 292 291 287 287
298 298 298 299 299 299 300 300 300 300 301 296 289 284 289 283 284 286 287 287 283 283 288 289 286 287 286 283 284 284 287 288 291 295 298 296 288 291 291 292 292 291 290 290 289 290 286
298 298 298 298 298 299 299 300 299 300 301 293 285 286 289 287 288 286 286 285 284 285 287 285 284 287 287 284 285 284 286 287 286 290 293 293 287 290 287 292 291 288 290 290 290 291 291
298 297 297 298 298 298 299 299 299 300 300 291 293 293 290 286 285 284 284 286 286 288 289 289 288 286 285 287 291 291 292 291 290 287 286 287 289 286 282 287 287 283 288 289 290 292 292
297 297 297 297 297 298 298 299 299 300 300 294 294 292 286 281 284 284 286 288 287 288 286 289 290 287 291 295 295 292 290 289 290 289 290 287 288 285 282 284 276 287 292 292 291 292 294
296 297 297 297 298 299 299 299 300 300 301 295 295 292 288 282 285 285 286 287 289 290 288 288 291 293 295 292 286 284 284 286 288 290 290 291 289 284 281 281 284 287 289 289 288 288 294
296 297 297 298 298 299 299 299 300 300 301 297 295 297 291 286 283 288 287 289 286 286 287 288 294 297 294 288 285 279 278 282 282 286 293 291 291 287 283 279 276 285 294 299 297 285 298
298 298 298 299 299 299 299 300 300 300 301 298 295 298 292 285 289 290 286 286 290 289 287 288 290 289 293 286 281 280 279 285 280 282 283 284 285 283 283 281 284 291 294 298 285 288 297
298 298 298 299 299 300 300 301 300 300 300 298 296 300 293 287 291 293 293 290 291 290 286 289 288 288 287 283 283 283 281 284 283 287 285 283 283 283 284 281 278 294 297 290 295 300 300
298 299 299 299 299 300 300 301 301 300 301 301 293 300 299 291 291 297 298 299 297 296 292 291 289 289 290 286 286 285 283 283 285 281 289 284 288 286 287 287 294 296 298 302 300 300 301

GFSGBSN_sfc_thetae_054.txt.gz
Theta_e
308 308 308 309 309 310 310 310 311 312 312 312 312 312 313 313 313 313 313 313 313 312 312 311 312 312 310 300 296 307 319 321 321 316 309 309 305 303 300 303 305 302 304 305 306 306 307
308 309 309 309 308 309 310 311 311 311 312 312 313 313 313 312 312 312 313 313 312 312 312 312 312 311 304 294 304 309 311 311 312 314 313 309 306 307 304 303 303 305 305 305 306 307 307
307 308 308 308 308 310 311 310 310 310 311 312 313 313 312 312 312 312 312 312 312 312 312 312 311 309 301 297 305 308 308 306 311 312 308 312 311 306 306 303 306 305 301 304 305 306 305
308 307 307 307 308 308 308 309 310 310 311 311 311 311 312 312 312 312 312 311 312 312 312 312 312 307 295 306 309 307 309 306 306 311 310 310 311 307 306 307 304 301 302 298 304 305 306
307 307 307 307 307 308 308 309 310 310 310 310 310 311 311 311 311 311 311 311 311 310 312 311 308 304 294 309 305 308 308 302 304 306 310 310 309 305 305 301 298 300 295 297 300 304 304
308 307 307 307 307 306 307 308 309 309 309 309 309 310 311 311 311 310 310 310 310 309 311 310 308 298 300 294 304 309 311 309 304 302 306 306 304 300 300 298 292 295 295 298 297 301 303
307 308 307 306 306 307 306 306 308 308 308 308 308 309 310 311 311 310 308 308 302 301 300 296 298 297 299 307 310 308 311 308 306 302 298 304 298 295 298 300 300 299 297 296 299 301 300
307 307 306 306 305 306 306 306 308 307 306 307 307 308 309 309 310 309 308 301 298 299 290 299 300 300 302 304 298 304 310 303 302 296 299 300 295 301 302 301 298 297 295 296 299 300 299
305 305 307 306 305 306 306 305 305 306 305 306 306 308 308 309 309 307 305 303 306 305 292 296 300 299 300 301 295 297 306 302 300 298 296 296 297 302 300 298 296 297 295 296 296 298 301
305 305 305 306 305 305 305 304 304 304 304 305 306 307 308 308 305 306 303 307 309 306 289 290 294 298 300 299 293 300 302 303 298 295 296 296 299 298 298 297 298 294 299 298 297 295 291
305 305 304 305 305 305 305 303 303 304 303 305 306 306 308 308 306 302 305 309 308 304 278 290 294 304 301 295 295 297 304 299 294 297 297 295 294 296 296 297 299 296 300 298 298 296 295
304 304 304 303 304 305 305 304 303 303 304 304 304 305 307 306 307 305 308 309 305 289 278 287 294 293 294 296 295 298 297 300 299 297 300 298 301 299 299 300 300 300 298 298 298 296 289
303 303 303 303 303 304 304 304 303 302 303 304 304 304 305 306 301 308 308 302 288 281 291 287 289 293 292 291 294 294 293 290 290 286 290 296 295 300 301 296 300 299 295 289 288 288 287
302 302 303 302 303 303 304 303 303 303 302 303 303 304 305 304 308 309 302 293 280 284 287 293 291 292 289 292 292 293 292 288 294 291 288 287 286 295 300 298 296 296 296 290 283 286 289
302 302 302 302 302 302 302 303 303 303 302 302 303 303 302 305 308 307 293 283 284 286 290 289 290 287 287 291 291 292 292 291 292 295 287 287 288 298 300 301 299 296 293 298 292 293 291
301 301 301 301 302 301 302 303 302 302 301 302 299 296 298 306 310 303 288 283 286 292 292 291 285 288 284 288 288 290 291 296 295 296 299 294 288 296 298 301 302 299 301 292 293 285 284
300 301 301 301 301 301 301 302 302 302 301 301 297 292 301 307 307 294 283 285 289 293 293 289 287 287 287 287 288 287 289 294 296 300 299 296 294 293 297 296 295 296 295 296 296 294 287
299 299 300 300 300 300 300 301 301 302 301 299 296 285 303 307 289 289 284 288 291 290 293 291 291 289 288 289 287 287 286 293 297 299 295 296 294 290 292 297 300 300 297 297 291 290 293
299 299 300 300 300 300 300 301 301 301 301 299 290 289 303 303 282 283 288 288 291 290 290 290 289 291 292 289 285 288 290 296 296 297 296 299 293 286 289 293 297 296 297 297 296 295 291
299 299 299 299 299 300 300 300 300 300 301 299 292 284 290 295 292 288 286 287 286 292 291 292 290 292 290 288 291 287 288 292 295 295 298 300 295 290 286 289 295 292 294 295 295 291 292
298 298 298 299 299 299 299 299 300 300 301 298 290 286 290 283 286 287 288 287 286 285 291 292 289 289 288 285 288 287 290 291 293 295 299 298 289 292 292 292 292 292 293 293 292 293 290
298 298 298 298 299 299 299 299 300 299 301 295 285 286 291 289 290 287 287 285 286 287 288 287 287 290 290 287 289 287 289 290 289 293 293 296 289 291 288 291 292 290 292 293 293 293 293
297 297 297 298 298 299 299 299 299 300 300 294 293 295 290 287 287 286 286 287 286 290 291 292 291 289 288 290 294 295 294 294 294 291 290 291 292 288 284 290 289 285 290 292 294 296 294
297 297 297 298 298 298 298 299 299 299 300 297 295 293 287 281 285 286 287 288 288 288 289 292 292 289 293 298 297 296 295 294 294 293 294 289 292 291 286 287 279 290 295 294 293 294 296
296 297 297 297 297 298 298 298 298 299 299 299 299 292 288 283 286 286 287 288 289 291 288 290 292 295 296 292 288 287 288 289 290 292 292 293 291 287 284 284 287 289 292 292 291 290 296
297 296 297 297 298 298 298 299 299 299 300 299 299 299 292 283 285 289 287 289 287 286 288 289 294 297 294 289 288 281 281 284 284 287 293 292 293 289 286 280 278 289 295 299 298 288 299
298 298 297 298 298 298 298 298 299 299 300 299 297 301 293 284 289 290 287 287 291 289 287 289 290 291 293 287 284 283 282 288 283 283 284 285 287 285 285 284 287 294 296 298 288 291 300
298 298 298 298 298 298 298 299 299 299 299 299 296 302 294 286 289 294 293 290 291 290 285 290 289 288 287 286 285 285 285 287 286 289 287 284 284 285 286 282 280 297 296 291 299 302 301
299 298 298 298 298 298 299 299 300 300 300 300 295 301 301 290 290 297 297 300 297 296 292 292 291 291 292 289 289 289 286 290 287 283 293 286 290 288 289 289 297 300 300 302 303 301 302

GFSGBSN_sfc_thetae_060.txt.gz
Theta_e
309 309 309 309 309 309 310 312 311 311 311 311 312 312 312 312 312 312 313 313 313 313 313 312 313 313 309 300 301 313 318 319 320 317 311 308 307 306 302 305 305 302 303 306 307 307 307
308 308 308 309 309 309 309 310 309 310 311 311 311 311 311 311 311 311 312 312 312 313 313 312 312 312 305 295 310 313 311 309 307 314 313 311 307 308 305 304 302 304 304 304 306 306 307
309 309 309 309 309 309 309 309 308 309 310 310 310 310 310 310 310 311 312 312 311 312 312 312 312 310 303 299 310 310 310 310 311 305 301 304 309 309 308 303 306 304 300 303 305 306 304
309 309 309 309 309 308 308 308 308 308 309 309 309 309 310 310 310 311 311 311 311 312 312 313 313 309 299 309 311 308 309 307 309 311 306 305 306 307 306 307 303 300 301 296 303 305 306
309 308 307 308 309 309 308 308 308 307 309 309 308 308 309 309 310 310 310 310 310 312 313 313 310 307 299 311 304 307 306 306 308 311 309 306 303 302 303 299 296 298 293 296 299 305 305
308 308 308 308 308 308 308 307 309 308 308 308 307 307 308 309 309 309 308 309 311 313 311 313 311 301 305 300 306 308 311 307 306 307 304 302 298 295 298 296 288 292 295 297 298 303 305
307 307 308 308 308 307 307 307 308 308 307 307 306 306 307 308 309 308 307 307 303 303 305 301 300 302 303 306 309 305 312 306 308 304 297 298 291 289 295 298 298 298 297 297 302 306 303
306 307 306 306 306 306 308 307 308 307 306 305 305 305 306 307 308 308 307 303 303 304 294 301 302 302 304 305 298 302 311 303 301 296 299 297 290 294 297 299 298 297 296 297 301 304 302
306 306 306 306 305 305 306 307 307 306 305 305 304 305 306 307 307 307 307 304 310 308 295 298 302 301 302 304 298 298 302 304 299 296 297 294 295 298 296 295 294 296 296 297 297 301 303
306 306 306 306 306 305 305 306 306 305 305 305 304 305 306 306 302 305 302 309 311 308 289 296 298 302 304 302 296 303 304 301 297 295 297 296 300 297 296 294 296 293 300 299 298 297 292
305 305 306 306 305 305 304 304 305 305 305 304 304 304 305 305 300 299 306 309 310 304 281 294 298 307 304 298 299 298 303 299 294 295 296 294 296 296 295 296 299 296 302 300 299 297 296
304 304 305 305 305 304 304 304 304 305 304 304 304 303 304 301 303 306 308 309 306 288 281 290 297 296 296 299 299 299 299 300 298 293 297 296 301 299 298 299 300 301 300 299 299 297 289
302 303 303 304 304 304 304 304 304 304 304 303 303 303 301 302 296 305 308 303 288 283 293 290 292 294 294 293 296 296 295 293 288 285 286 292 293 297 301 297 299 297 294 288 286 287 287
301 301 302 302 302 303 303 304 303 303 303 303 304 304 302 301 303 307 302 292 281 288 290 295 293 293 290 294 296 295 294 291 294 292 289 287 284 292 299 297 294 294 294 289 282 285 288
301 301 302 302 301 302 302 303 303 303 303 303 303 300 300 303 306 306 293 283 284 289 292 291 292 287 288 292 293 294 293 293 295 293 287 287 288 297 299 300 298 294 290 297 292 293 289
301 301 301 301 301 301 302 302 302 302 302 302 298 296 296 306 310 301 289 283 288 293 293 293 286 288 287 290 290 291 293 297 296 297 297 292 286 294 297 300 300 297 299 290 291 283 283
299 300 300 300 300 301 301 301 302 302 301 301 296 289 299 308 306 294 282 285 290 294 294 291 289 287 289 289 290 290 291 296 298 297 299 295 291 290 295 293 293 294 293 295 294 292 287
299 299 300 300 299 300 300 301 301 301 301 298 293 285 302 305 290 290 284 289 292 293 295 292 293 291 290 291 289 289 290 293 298 298 294 298 293 287 291 298 299 296 295 294 289 289 292
299 299 300 300 299 300 300 300 301 301 300 298 289 290 301 303 284 285 289 289 291 291 291 291 290 292 292 289 286 290 291 297 297 295 293 295 291 286 288 294 298 293 295 296 296 295 289
298 299 299 299 299 299 300 300 300 301 300 298 289 284 291 296 293 288 287 287 287 292 290 292 291 293 290 289 291 289 290 295 296 295 298 296 293 289 285 289 293 290 295 296 296 289 291
298 298 298 299 299 299 300 300 300 300 301 297 289 286 290 285 287 288 289 289 287 286 292 292 290 290 289 286 288 288 291 292 295 296 296 295 289 292 293 295 294 294 294 295 294 294 290
298 298 298 298 299 299 299 299 300 300 300 293 285 287 290 287 290 288 288 286 286 288 289 289 288 290 291 287 289 287 290 292 291 295 293 296 287 290 289 294 294 291 295 295 295 296 295
298 298 298 298 298 298 299 299 300 300 300 291 292 294 290 286 287 286 286 287 287 290 291 293 292 291 289 291 294 296 296 296 295 293 292 291 289 287 285 291 291 287 291 294 294 296 296
298 298 298 298 298 298 298 299 300 300 299 296 295 294 286 282 284 285 287 289 288 289 288 291 293 291 294 300 299 297 295 294 294 294 295 290 289 288 284 287 279 291 297 297 295 296 298
297 297 298 298 298 298 298 299 299 299 299 297 297 293 289 283 285 286 287 288 290 291 290 291 293 297 298 296 289 286 287 288 290 292 292 294 290 285 283 283 288 291 293 293 292 292 298
297 297 297 298 298 299 299 298 299 299 299 298 298 299 288 286 285 288 287 288 286 288 289 291 297 300 296 290 286 280 279 284 284 287 293 293 294 287 286 281 279 290 296 299 297 288 299
298 299 299 299 299 299 299 299 299 299 299 299 297 299 292 285 290 290 287 286 291 289 288 291 293 292 294 286 283 282 281 288 282 284 285 287 288 284 284 283 287 294 297 298 286 290 300
299 299 299 299 299 299 299 298 299 299 299 298 296 299 294 288 290 292 292 288 289 289 287 291 290 289 288 283 284 285 285 287 287 289 287 286 284 284 285 282 280 297 297 291 298 301 301
299 299 299 300 300 299 299 298 299 299 299 299 293 299 300 291 290 296 296 296 294 294 291 292 291 288 292 287 289 290 287 290 288 283 292 284 290 287 288 287 298 301 301 302 303 300 300

GFSGBSN_sfc_thetae_063.txt.gz
Theta_e
308 309 309 308 309 309 308 309 310 310 310 311 311 311 311 311 311 311 311 312 312 312 312 312 313 312 306 297 298 307 321 319 319 314 308 305 300 299 297 301 302 299 300 302 303 303 303
308 309 309 309 309 309 309 309 309 309 310 311 310 310 310 310 310 310 310 311 311 312 311 312 312 312 301 291 305 306 306 306 305 303 307 307 304 305 301 301 300 302 301 301 302 302 303
310 309 309 309 309 309 309 309 308 308 309 310 309 309 309 308 309 309 310 310 310 311 311 312 313 308 299 296 305 305 305 302 306 306 298 301 301 298 302 300 304 302 297 299 299 300 300
309 309 308 309 310 310 309 308 308 308 308 309 309 308 308 308 308 309 310 310 309 310 311 312 313 306 296 308 307 306 304 302 304 306 305 305 302 297 300 303 302 297 295 290 298 301 302
309 309 309 308 310 309 309 308 308 308 308 308 308 307 308 308 308 308 309 309 309 310 312 313 307 303 297 312 305 306 304 299 304 305 305 309 301 295 298 294 293 294 287 291 295 302 301
307 307 308 309 309 308 308 308 309 309 308 307 307 306 307 307 307 307 307 307 309 311 311 310 308 300 304 301 304 305 305 305 301 304 304 300 296 289 292 291 284 288 290 291 293 299 299
306 307 307 307 307 307 307 308 309 308 308 306 306 305 306 306 307 307 304 300 297 297 299 296 299 300 301 304 304 301 307 304 305 302 295 297 288 284 288 294 295 295 293 292 294 301 301
306 306 306 306 306 306 306 306 307 308 306 306 305 305 305 305 306 306 302 298 301 300 292 300 300 299 302 302 297 299 303 300 300 294 298 295 288 293 294 294 295 295 292 291 296 301 300
306 306 307 306 306 306 306 305 306 307 307 306 305 304 304 305 305 303 300 300 308 304 291 294 300 299 300 302 297 296 298 301 297 294 296 292 294 298 295 292 290 293 291 292 293 298 299
306 306 306 306 307 306 306 305 305 305 306 306 306 305 305 305 299 296 296 305 307 306 287 291 296 299 302 301 295 301 301 296 297 292 296 295 298 295 295 294 294 288 295 295 295 293 288
305 305 305 305 306 306 305 305 304 304 305 305 305 305 305 303 294 293 300 303 306 302 275 296 296 306 303 296 297 296 300 296 291 295 296 293 295 295 293 294 298 294 298 296 296 294 291
303 303 304 304 304 305 304 305 304 304 304 305 305 304 305 298 296 297 301 302 302 286 276 289 296 295 295 297 297 298 296 297 296 292 296 295 300 298 297 299 299 300 296 296 295 293 286
302 302 302 303 303 303 304 304 304 304 304 304 305 304 300 299 290 298 298 297 284 278 293 289 291 294 292 291 294 294 292 288 284 281 284 290 293 297 299 294 297 297 292 284 284 283 282
301 301 301 302 302 303 303 303 304 303 303 303 304 304 300 298 297 297 296 289 278 286 289 294 293 292 289 291 293 293 290 287 289 287 285 284 284 292 296 293 293 294 291 285 280 280 285
301 301 302 302 302 302 302 302 303 303 303 303 303 296 294 297 299 296 291 279 280 285 290 290 290 287 287 289 291 292 291 289 293 291 284 286 287 296 296 298 297 293 289 294 288 289 286
299 301 301 301 301 301 301 302 302 302 302 302 292 291 293 298 300 294 287 280 284 290 291 290 285 288 284 288 288 288 291 296 295 297 293 290 284 293 295 298 298 295 297 287 288 281 280
300 300 299 300 300 301 300 301 301 302 302 301 290 286 293 298 298 290 279 281 285 290 291 288 287 287 287 287 289 287 291 296 297 296 296 294 289 288 293 292 291 293 291 292 292 289 282
299 300 300 300 300 300 300 300 301 301 301 297 291 279 295 300 285 287 281 285 290 288 292 290 290 290 287 288 287 288 288 292 296 295 292 294 291 284 287 294 297 296 293 293 287 286 289
299 299 299 300 300 300 300 300 300 301 301 291 287 284 294 297 281 280 285 286 287 286 288 288 288 290 290 287 283 288 289 296 296 293 291 291 288 283 286 291 296 292 294 294 294 293 288
298 298 299 299 299 299 299 299 300 301 301 295 287 280 285 288 287 285 284 284 284 290 288 290 288 290 288 286 288 286 289 295 296 296 297 294 290 287 283 287 292 289 293 294 292 287 288
298 298 298 298 298 299 299 299 299 300 300 294 287 281 285 281 281 284 285 285 284 285 290 290 286 287 286 284 286 286 289 290 294 297 295 293 286 290 290 291 293 291 291 293 291 292 289
298 298 298 299 298 299 299 299 300 299 300 291 282 281 285 283 285 285 285 283 283 285 287 286 286 288 288 285 287 285 289 290 290 294 293 293 285 288 286 292 292 291 292 294 294 295 295
298 298 298 298 298 298 298 299 299 299 298 288 291 290 286 283 283 280 282 284 285 288 289 290 290 288 287 290 292 292 293 293 292 290 290 290 287 285 282 288 289 284 290 293 293 295 295
298 298 298 298 298 298 298 298 299 299 299 290 289 289 283 277 280 281 283 285 285 287 285 290 291 289 293 298 296 296 293 293 293 292 293 288 286 286 281 284 278 290 296 297 294 295 297
297 298 298 298 298 298 299 299 299 299 299 294 293 290 286 276 282 282 284 284 286 288 286 288 292 295 298 294 286 283 282 283 287 290 290 291 286 280 280 281 286 289 293 292 292 292 297
298 298 298 298 298 299 299 298 298 298 299 295 294 295 289 281 278 286 284 286 283 283 286 288 296 296 292 286 281 277 275 281 281 286 291 290 289 282 280 278 277 288 295 298 297 287 298
298 298 298 298 299 299 299 299 299 298 299 295 292 295 290 282 285 285 282 284 288 285 284 289 289 288 291 284 276 278 277 285 279 281 282 283 283 280 280 278 284 294 296 298 285 288 298
299 299 299 299 299 299 299 299 299 299 299 295 292 296 291 285 287 290 290 286 287 287 284 287 285 288 285 279 277 278 277 282 282 287 285 283 281 280 280 277 277 296 295 290 294 298 298
299 299 299 299 299 299 300 299 299 299 299 298 290 296 295 288 286 292 293 293 291 290 288 289 285 287 288 285 282 283 279 282 285 280 291 283 287 283 284 283 294 300 298 300 299 297 297

GFSGBSN_sfc_thetae_066.txt.gz
Theta_e
308 308 308 308 308 309 309 308 309 309 308 310 310 310 310 309 309 309 309 310 310 310 310 311 312 312 304 296 295 305 317 312 315 314 309 305 300 295 292 295 298 298 300 302 302 302 301
309 309 309 309 309 309 309 309 308 308 308 308 310 309 309 308 308 308 308 309 310 310 310 310 311 312 299 288 303 305 303 304 304 307 302 305 300 298 298 298 296 300 301 301 302 302 300
309 310 309 309 309 309 309 309 308 308 308 308 309 309 308 308 307 307 308 309 309 309 309 310 311 308 298 294 304 303 305 302 301 304 300 300 299 295 296 297 302 300 295 298 299 298 297
308 310 309 309 310 310 309 309 308 308 308 308 308 308 307 307 307 307 308 308 308 309 310 310 311 305 295 306 305 305 303 302 302 301 303 303 301 296 295 300 299 296 294 289 297 298 299
307 308 308 309 309 309 309 309 309 308 308 308 307 307 307 307 307 307 307 307 307 310 312 312 306 301 296 312 305 307 305 300 300 303 303 307 301 293 294 291 289 292 286 289 294 299 298
307 307 307 307 307 307 307 308 309 309 308 307 307 306 306 306 306 306 306 306 307 310 310 310 308 299 302 300 303 302 301 301 299 302 302 299 294 287 287 288 283 287 288 289 290 294 297
307 306 306 307 307 306 306 307 307 308 307 306 306 305 305 306 306 306 303 299 298 296 299 295 299 300 302 305 304 300 301 301 304 300 293 295 288 286 285 289 293 293 291 289 293 297 295
306 307 307 306 306 306 306 306 306 306 307 306 306 305 305 305 306 305 301 297 300 301 291 299 299 298 302 302 295 299 301 297 298 292 296 293 287 292 292 292 291 292 291 290 294 297 296
305 306 306 306 307 307 307 306 306 305 305 306 305 305 305 306 305 300 294 297 303 302 290 293 297 297 297 299 294 295 297 299 296 294 294 290 294 298 294 292 290 289 288 291 291 295 297
305 305 306 305 305 306 306 306 305 305 304 306 306 306 305 305 296 295 294 300 300 302 285 289 294 298 300 300 294 300 299 299 296 292 295 293 298 296 294 292 293 289 293 292 292 291 285
303 303 303 304 304 304 305 305 305 304 304 304 306 305 305 304 295 292 297 298 299 299 273 293 296 304 301 295 295 295 299 294 289 294 294 290 293 294 291 293 296 292 299 295 294 289 287
302 302 302 302 303 303 304 304 304 304 304 304 304 305 304 297 293 296 297 297 298 284 274 289 296 294 294 295 295 294 294 296 294 291 294 292 299 297 295 298 298 299 296 295 293 290 282
301 301 301 301 302 303 303 303 303 304 304 304 303 304 301 299 289 295 295 294 280 276 289 288 290 294 292 292 293 292 290 287 284 281 281 286 291 296 300 294 297 296 291 284 283 281 281
300 300 301 301 302 302 302 302 302 303 303 303 303 303 300 299 295 294 292 286 275 283 285 292 290 290 288 290 291 291 288 284 287 284 282 280 280 290 298 294 292 292 291 284 279 280 283
300 300 300 301 302 301 301 301 302 302 302 303 302 293 292 294 296 293 288 273 278 282 288 286 287 285 285 289 289 290 288 288 288 287 282 282 285 292 296 297 295 290 288 294 286 288 283
299 299 300 300 300 300 301 300 301 302 302 302 291 288 289 296 295 295 284 277 282 287 288 287 281 287 282 285 286 286 288 294 294 295 291 287 283 291 294 297 297 294 297 287 289 281 279
298 299 299 300 299 300 300 300 300 301 301 301 288 283 291 297 297 289 278 278 283 287 287 286 284 283 285 285 286 287 290 294 295 295 296 292 287 286 292 290 290 291 290 290 291 289 282
298 298 300 300 300 300 300 300 300 300 301 295 286 277 292 298 283 285 280 283 288 286 289 287 289 287 286 286 285 285 287 291 294 294 290 292 289 284 287 293 296 295 292 292 286 285 288
298 298 299 299 299 300 300 300 300 300 300 289 287 282 290 292 279 278 283 284 286 285 285 285 287 288 288 285 282 287 289 295 294 293 289 289 286 281 284 289 293 291 293 294 294 291 287
298 297 298 298 299 299 299 300 300 300 300 293 287 277 281 285 285 283 282 282 283 289 287 287 287 288 286 285 288 284 287 294 295 294 297 293 287 285 282 287 291 289 292 293 292 286 286
297 297 298 298 298 299 299 299 299 300 300 294 286 279 282 279 282 283 284 283 281 281 288 288 286 286 284 282 284 283 288 290 294 297 294 290 282 288 289 290 290 291 291 291 290 290 287
298 298 298 298 299 299 299 299 299 299 299 291 283 276 283 281 285 282 282 281 281 284 285 284 284 286 287 285 286 283 288 288 289 292 290 291 283 286 285 289 289 287 292 292 291 293 292
298 298 298 299 299 299 299 299 299 299 298 289 291 287 284 280 279 278 280 282 282 284 287 288 287 285 285 288 291 291 291 292 291 288 287 288 286 282 280 287 286 283 289 292 293 296 295
298 298 298 298 298 299 299 299 299 299 298 289 286 286 282 276 278 279 282 282 282 284 283 287 289 286 291 296 294 292 292 292 291 290 291 286 284 283 279 283 275 289 293 294 294 295 297
298 298 298 298 298 298 298 299 299 299 299 294 291 287 285 276 282 281 283 282 284 286 285 286 290 293 297 291 285 282 281 283 285 289 289 290 285 279 277 278 283 286 292 292 292 290 297
298 298 298 298 298 298 299 299 299 299 299 291 292 294 288 279 278 283 282 284 280 281 283 287 293 295 294 286 284 277 275 280 280 284 289 288 286 280 278 277 274 287 294 297 296 287 297
297 297 297 297 298 299 299 299 298 298 299 292 289 294 290 282 283 284 279 282 286 284 282 287 286 289 288 279 277 276 277 284 278 280 280 280 280 279 278 276 281 292 296 298 284 287 297
297 297 298 298 298 299 299 299 299 299 299 294 290 293 289 285 285 288 289 285 286 286 281 285 285 286 284 276 277 277 276 281 280 283 282 281 279 277 279 277 276 294 295 289 294 298 297
297 298 299 299 299 299 299 300 300 299 299 298 289 294 295 288 283 291 292 292 290 290 287 288 285 285 288 282 282 282 277 277 281 279 290 283 286 282 282 281 292 293 293 297 299 296 296

GFSGBSN_sfc_thetae_069.txt.gz
Theta_e
307 308 308 308 308 309 309 309 308 308 308 308 309 310 309 309 309 308 308 309 308 308 308 309 310 311 304 293 292 301 314 309 307 315 310 306 299 295 289 291 296 295 297 299 301 300 298
309 308 309 309 309 309 309 309 308 308 308 308 308 309 309 308 308 307 307 308 308 308 308 308 310 310 299 289 299 303 303 302 301 308 305 304 301 298 294 294 294 297 298 299 301 301 300
309 309 310 309 308 308 308 309 309 308 308 309 308 308 308 307 307 306 307 308 308 308 308 309 310 307 299 295 302 303 304 301 300 300 298 299 299 294 294 293 299 298 293 296 297 295 296
308 309 309 309 309 309 309 309 309 308 308 308 308 308 307 307 307 307 307 307 307 309 310 311 311 306 296 306 305 304 302 301 303 301 300 302 301 296 292 296 297 294 293 288 295 296 297
307 307 307 307 308 308 308 308 308 308 308 307 307 307 307 307 307 306 306 306 308 310 313 311 306 301 294 311 305 307 305 300 300 301 301 306 300 294 291 288 288 289 285 287 291 297 296
307 306 306 307 307 307 307 307 308 307 308 307 307 306 307 307 306 306 305 307 308 309 310 310 307 298 301 299 304 304 301 303 298 302 300 298 292 287 285 286 282 285 286 285 288 294 294
306 307 306 306 306 306 306 306 306 306 306 307 306 306 306 307 306 306 303 300 298 296 299 294 297 298 300 304 304 300 301 302 304 299 291 295 288 284 285 287 290 291 289 287 289 297 292
306 306 306 306 307 307 306 307 306 306 305 306 306 306 306 305 306 305 298 296 295 296 290 299 298 298 301 303 295 298 301 295 297 290 295 292 286 291 292 290 288 287 287 288 293 297 293
304 304 306 306 305 306 307 306 306 305 305 305 305 305 305 305 305 296 292 296 299 297 289 292 296 295 297 299 293 293 297 296 295 292 293 288 292 297 293 290 288 288 285 288 289 293 293
304 304 305 305 304 305 305 305 305 304 304 304 305 305 306 305 294 293 292 297 297 297 284 287 293 297 298 298 291 298 298 299 295 291 293 292 296 295 293 291 291 285 292 293 289 287 282
302 302 302 302 303 303 304 304 304 304 304 304 304 304 305 303 292 288 295 296 297 298 273 289 296 304 300 294 295 294 298 293 292 292 293 288 292 292 290 292 295 290 297 295 293 288 285
301 301 301 301 301 302 303 303 303 303 303 303 304 303 304 296 292 292 294 295 296 282 273 287 295 293 293 294 294 293 293 294 293 289 293 291 297 295 293 296 296 297 295 294 293 288 280
300 300 300 301 301 301 302 302 302 302 302 303 303 303 300 298 288 293 293 290 279 275 286 286 287 291 292 291 292 291 289 287 283 280 280 285 288 294 298 292 296 295 290 282 281 279 279
299 299 300 301 301 302 302 302 301 302 302 302 302 302 299 297 294 293 290 285 273 280 283 289 288 288 287 291 290 290 286 283 286 283 280 279 278 289 296 292 290 291 291 284 277 279 281
298 299 299 300 300 301 300 300 300 301 302 302 300 291 291 292 294 292 286 276 275 280 286 284 286 284 284 288 287 289 286 284 286 286 280 280 282 290 296 296 295 291 287 293 286 288 282
297 298 299 299 300 299 300 300 300 300 301 301 289 287 287 293 294 291 283 276 279 286 285 284 280 285 281 283 284 284 286 291 292 289 289 286 281 289 292 295 296 293 296 286 288 280 278
297 297 297 299 299 299 299 300 300 300 300 300 286 282 288 293 294 287 276 277 282 286 287 284 283 283 284 283 284 284 288 293 294 294 291 290 287 284 291 289 289 291 290 289 290 288 281
298 297 297 299 299 299 299 300 300 300 300 293 284 274 288 295 282 281 276 281 286 285 288 285 286 285 284 285 283 285 285 291 295 294 291 292 290 283 287 292 295 294 292 291 285 284 287
297 297 298 299 299 299 299 299 299 300 299 287 284 281 289 288 270 279 281 283 285 283 283 284 284 286 288 284 280 286 287 295 294 291 288 289 286 281 282 287 293 291 293 293 292 291 286
297 297 297 297 298 298 298 299 299 299 299 291 286 274 279 283 283 280 278 281 280 287 286 287 285 286 284 283 287 284 286 292 295 293 297 293 287 283 279 284 290 287 289 293 292 286 286
298 297 297 297 298 298 298 298 298 299 298 292 286 279 280 269 280 281 282 282 281 281 286 287 284 284 284 282 283 282 287 290 293 296 292 288 282 286 287 288 288 289 288 291 290 290 287
297 297 298 298 298 298 298 299 299 299 298 291 282 278 281 280 283 281 281 280 280 280 282 283 283 285 286 283 285 283 287 287 287 291 289 290 282 284 282 288 286 284 288 291 292 292 292
297 298 298 298 299 299 299 298 298 299 297 289 290 289 282 279 279 278 278 280 281 283 284 286 285 284 283 285 289 290 290 290 289 287 287 287 284 282 279 284 283 280 287 288 292 293 292
298 298 298 298 298 298 298 299 299 299 296 292 287 286 280 274 278 278 280 281 281 283 281 285 287 285 290 293 293 291 291 291 290 289 290 285 283 282 278 281 273 284 290 293 291 294 296
297 298 298 298 298 298 298 298 299 299 298 289 291 288 283 275 279 280 282 281 282 283 283 285 289 291 295 292 284 282 280 282 285 288 288 289 284 278 275 276 281 284 291 290 289 290 296
297 298 298 298 298 298 299 299 299 299 299 290 289 294 288 278 277 282 280 281 279 280 281 285 292 292 293 285 281 277 275 279 280 283 288 288 285 280 278 275 272 283 292 297 295 285 296
297 297 297 297 297 298 299 298 298 299 299 290 287 292 289 282 283 283 279 278 284 282 280 285 284 287 290 281 278 276 278 283 277 279 280 280 280 279 278 276 279 288 293 296 282 286 295
296 297 297 297 298 298 298 298 299 299 299 293 290 292 289 284 284 287 287 282 283 283 277 282 282 283 283 278 279 280 277 281 280 281 280 280 278 277 279 277 274 291 293 287 292 296 295
297 296 297 298 298 298 298 299 299 299 299 298 289 293 292 286 284 289 289 290 289 288 285 285 285 284 285 283 283 282 278 276 280 276 287 276 285 281 282 281 290 291 290 294 297 295 295

GFSGBSN_sfc_thetae_072.txt.gz
Theta_e
308 308 308 308 308 309 309 309 308 308 308 308 308 309 309 309 308 308 308 308 307 307 307 308 309 310 305 294 292 299 311 308 312 313 308 305 299 294 288 289 291 292 295 297 298 298 297
308 308 308 309 309 309 309 309 308 308 308 308 308 308 308 308 307 307 306 307 308 307 307 308 309 309 300 288 301 302 303 302 301 307 306 305 300 298 293 292 290 294 295 296 298 298 299
309 308 308 309 307 307 308 308 309 308 308 308 308 307 308 307 307 306 306 307 307 308 308 310 310 306 300 294 304 304 304 302 300 301 297 299 300 293 292 289 295 296 292 294 295 295 296
308 308 308 308 308 308 308 308 308 308 308 309 308 307 307 307 306 307 307 307 307 309 311 312 311 305 296 307 306 304 303 302 303 302 300 301 300 296 292 293 294 292 291 287 293 294 296
308 307 306 306 307 306 307 307 307 307 307 308 307 307 307 307 307 307 306 307 308 310 311 311 304 301 293 310 305 307 305 300 300 299 299 303 299 294 292 287 285 288 284 287 290 295 294
307 306 305 306 306 306 306 306 306 306 306 306 307 306 306 307 307 306 306 306 307 309 309 309 306 296 300 298 304 304 302 303 298 301 299 298 293 288 286 286 279 282 285 284 285 290 291
306 306 306 305 305 306 306 306 306 305 305 305 305 305 305 305 306 306 301 298 292 292 294 292 293 297 297 303 304 300 301 300 303 299 290 294 288 285 286 286 288 288 286 286 287 293 292
306 306 306 305 305 306 307 307 306 305 305 305 305 305 305 305 305 303 297 294 292 292 285 295 295 296 300 301 294 299 300 294 296 290 295 291 287 291 292 290 287 286 283 283 288 293 292
304 304 305 305 304 305 305 306 305 304 304 304 304 304 305 304 303 295 292 293 296 294 288 292 294 294 296 298 292 293 296 295 295 290 292 287 290 296 293 290 288 287 285 285 285 290 292
305 304 304 304 304 304 304 304 304 304 304 304 304 304 305 305 293 292 291 295 295 294 282 285 292 295 297 297 290 298 298 297 295 290 292 291 295 294 292 291 290 284 291 289 288 286 280
303 302 302 301 301 302 302 303 303 303 303 303 303 304 304 301 290 288 292 295 295 295 269 286 294 302 298 293 294 294 298 296 292 292 293 288 291 291 290 291 293 289 294 293 292 287 284
302 301 300 300 300 300 302 302 302 302 302 302 303 303 303 295 290 291 293 293 294 277 270 283 293 292 292 293 293 292 292 295 294 291 293 291 295 294 292 294 295 295 293 293 291 287 280
301 300 299 300 300 301 301 301 301 301 302 302 302 303 300 297 287 292 291 290 275 271 283 283 285 288 287 290 291 289 288 286 283 280 280 284 286 292 296 289 293 292 290 281 279 279 279
300 299 299 300 300 301 301 301 300 301 301 301 302 301 296 296 292 292 288 281 270 278 280 287 285 286 284 288 289 289 285 283 285 283 280 278 278 287 294 290 287 289 289 280 277 277 280
299 298 298 298 299 300 300 300 300 300 301 301 299 289 288 290 292 290 283 269 273 278 283 281 282 282 282 285 285 286 285 283 285 286 281 279 281 288 294 294 292 289 287 293 286 287 282
297 297 298 298 299 298 298 299 300 300 300 300 288 285 286 292 292 288 277 275 278 283 284 283 277 283 279 283 282 282 284 289 288 287 288 285 280 287 292 295 295 292 295 286 286 279 277
298 296 296 297 298 298 299 299 299 300 300 298 285 281 287 292 291 281 269 276 280 284 285 281 281 280 282 281 283 282 284 291 293 292 288 287 285 284 291 288 287 289 288 289 289 286 282
299 296 296 296 298 298 298 299 299 299 299 292 282 272 287 292 277 278 272 280 285 283 285 283 284 283 281 283 282 283 284 287 295 294 290 292 289 282 285 291 293 293 290 290 285 284 287
299 297 296 297 298 298 298 298 298 299 298 286 281 281 288 286 266 272 281 282 284 282 283 282 282 284 285 282 279 284 286 291 293 293 290 290 286 281 282 286 292 289 292 292 290 288 285
299 297 296 297 296 297 297 297 298 298 299 288 281 274 278 282 280 276 275 278 279 286 284 285 284 285 283 281 285 282 284 289 293 293 297 292 286 282 279 281 288 285 288 290 288 285 284
296 297 297 297 297 297 298 297 297 298 298 288 284 278 280 269 277 280 280 280 278 280 285 285 283 284 282 279 281 281 285 287 291 294 291 287 282 285 285 286 287 287 287 288 287 288 285
296 297 296 297 298 298 298 298 298 298 298 287 282 279 282 280 281 278 279 279 279 280 280 279 280 282 283 281 282 282 285 286 286 291 290 290 282 283 282 286 284 283 283 285 287 291 290
297 296 297 298 298 298 298 298 298 298 295 287 290 289 282 280 279 276 277 279 279 281 283 285 284 282 281 284 287 287 290 290 289 288 286 286 283 281 279 282 282 278 283 284 287 293 292
296 297 298 298 298 298 298 298 299 298 295 287 288 288 279 274 278 278 279 280 280 281 279 283 284 284 288 292 291 289 289 290 290 289 289 284 283 281 278 280 271 281 288 290 290 292 295
297 298 298 298 298 298 298 298 298 298 298 287 290 288 280 272 279 279 279 280 280 281 281 282 286 290 290 289 285 281 280 283 284 286 287 287 283 278 275 275 279 282 289 288 288 287 294
297 297 297 298 298 298 298 298 298 298 298 289 287 293 288 277 275 281 279 280 277 277 279 282 289 290 291 285 283 277 274 279 278 281 288 285 284 280 278 274 270 281 289 293 293 282 293
297 297 298 298 297 298 298 298 298 298 298 290 287 290 288 280 282 282 279 278 282 279 276 281 283 285 287 282 280 277 276 281 277 278 279 280 280 278 277 274 279 286 290 293 280 282 291
297 297 297 297 297 297 297 298 298 298 298 293 290 290 286 282 283 285 286 282 281 281 273 278 279 281 281 279 279 279 276 279 279 281 280 279 277 277 280 277 274 289 290 284 289 292 290
298 297 296 297 297 297 298 298 298 298 299 297 289 293 290 286 281 288 288 289 288 286 282 282 280 283 284 281 281 282 279 278 280 276 285 276 282 281 282 280 289 289 288 290 295 293 291

GFSGBSN_sfc_thetae_075.txt.gz
Theta_e
310 309 308 308 308 308 309 309 308 308 308 308 308 308 308 308 308 308 307 308 307 307 307 308 309 309 306 295 295 301 309 308 317 313 308 306 299 296 293 293 294 294 296 298 300 301 301
309 308 308 309 309 309 308 308 308 308 308 308 308 308 308 308 308 307 307 308 308 307 308 309 309 308 301 290 302 303 304 305 305 311 308 307 303 302 297 295 294 296 297 297 299 299 300
309 309 310 310 309 307 307 308 308 308 308 308 308 308 308 308 307 307 306 308 307 308 309 311 310 306 299 296 306 306 306 305 303 307 304 306 305 297 297 293 297 297 293 297 298 298 298
309 309 309 309 308 308 308 308 308 308 307 307 307 307 307 307 307 307 307 307 307 308 312 312 311 304 295 308 308 305 305 304 305 304 302 303 303 299 296 297 295 293 294 289 297 298 299
309 309 307 306 306 306 306 306 306 306 306 306 306 306 306 307 307 307 307 307 307 310 311 311 304 301 293 310 304 308 307 301 302 302 302 303 301 297 294 290 288 290 286 289 292 299 298
310 308 307 306 306 306 305 305 305 305 306 305 305 305 305 305 306 306 306 305 307 310 309 309 305 296 299 298 305 305 305 304 299 300 300 300 297 292 289 289 282 285 286 289 289 296 296
309 307 307 306 306 305 305 305 306 305 305 305 305 305 304 305 305 305 300 297 292 292 293 291 293 296 295 300 305 302 303 301 304 300 291 296 290 287 289 290 291 289 288 287 290 294 293
307 307 306 307 306 306 306 307 305 305 304 304 304 304 304 305 304 302 298 291 290 291 285 293 293 294 297 299 293 298 302 295 298 292 296 293 288 293 293 291 289 289 287 287 290 292 292
307 306 306 306 305 305 304 305 305 304 304 304 304 304 304 304 301 295 293 291 296 294 286 290 295 294 296 298 293 293 297 295 295 291 293 289 291 296 293 293 290 290 288 289 288 292 294
306 306 305 305 305 304 303 304 303 303 303 303 303 303 304 302 294 293 292 295 296 295 283 284 292 296 297 297 291 299 299 297 296 290 293 292 295 294 293 292 293 287 293 291 290 288 284
305 303 303 303 302 302 302 302 302 302 302 302 303 303 303 300 293 289 292 295 296 295 272 286 294 303 298 293 295 294 299 297 292 293 294 289 293 293 291 291 295 290 295 293 293 290 289
303 303 301 301 300 300 301 302 301 301 301 301 302 303 303 296 293 293 294 294 295 279 272 282 292 290 289 294 294 294 295 297 297 294 295 293 297 296 294 296 296 297 293 293 293 290 283
302 301 300 300 300 301 300 301 301 301 301 301 302 302 299 298 289 294 293 291 277 273 283 282 284 286 286 287 291 291 290 288 286 283 283 286 288 295 297 291 295 293 289 283 281 281 281
301 300 300 301 301 301 301 301 300 300 301 301 301 299 295 296 294 293 291 282 272 277 279 285 284 284 285 287 288 289 287 286 288 286 283 281 281 288 295 291 288 290 289 284 277 279 283
300 299 298 299 300 300 300 300 300 299 300 300 298 291 290 292 295 292 284 273 274 279 282 281 282 282 283 286 286 286 287 285 288 288 284 281 282 290 294 295 293 290 287 293 287 287 283
299 299 298 298 300 298 298 299 299 299 300 299 289 287 288 293 294 289 279 276 278 283 283 283 277 283 280 279 282 283 284 291 290 289 290 287 282 289 294 297 296 293 295 286 287 278 278
298 297 296 297 298 299 299 299 299 299 299 298 287 283 291 293 292 283 273 276 280 284 285 281 280 279 279 277 281 281 284 290 291 293 290 289 287 286 293 291 289 290 289 289 288 287 281
299 297 296 296 298 298 298 299 299 299 298 291 285 276 289 292 280 279 277 280 284 283 285 282 284 282 281 281 282 283 283 288 292 292 290 293 289 283 286 292 296 294 291 291 284 283 287
300 297 297 297 298 298 298 298 299 299 296 287 282 282 289 288 273 276 281 282 283 282 283 282 282 284 285 281 278 282 286 291 293 290 289 292 287 282 284 289 293 289 292 292 290 288 284
300 298 297 298 297 298 297 297 298 299 298 289 281 274 281 285 281 279 276 278 279 286 284 285 283 285 283 281 284 281 284 289 292 291 294 293 287 284 280 283 288 286 288 290 289 282 283
298 298 297 297 296 297 297 297 298 298 298 289 282 277 281 275 280 280 280 280 278 278 284 285 283 282 280 279 281 281 284 287 290 291 291 290 283 286 287 288 288 286 286 287 285 288 284
296 297 298 297 297 298 297 298 298 298 298 288 282 280 283 281 281 280 279 278 278 280 280 279 280 282 281 280 281 280 283 285 286 290 289 291 284 286 283 287 285 283 285 286 287 287 289
297 297 297 297 297 298 298 298 298 298 295 288 289 288 284 280 280 278 278 279 278 281 283 284 283 280 280 283 287 288 289 288 288 287 286 286 285 284 279 284 283 279 284 285 287 291 292
298 297 297 297 298 298 298 298 298 299 294 288 287 288 282 276 279 279 280 280 279 280 280 282 284 281 287 292 290 290 288 288 289 289 290 286 285 284 280 282 273 283 289 290 291 293 294
297 296 297 298 299 298 298 298 298 299 297 289 288 287 281 274 280 279 280 280 281 282 281 282 286 289 291 288 283 281 282 283 285 288 288 289 286 282 278 278 281 283 288 287 288 288 294
296 297 298 298 298 298 298 298 298 298 298 290 289 293 287 279 277 282 280 281 278 279 280 283 288 291 289 285 282 277 275 279 279 283 288 287 287 284 280 276 273 283 290 293 293 282 293
296 297 297 297 298 298 298 298 298 298 298 291 289 292 288 281 284 284 280 280 283 281 279 280 283 284 287 281 279 278 278 283 278 279 281 283 283 281 280 278 281 287 290 293 280 283 291
296 297 297 298 298 297 297 297 297 298 298 292 290 291 287 282 283 286 287 283 283 282 278 281 280 282 282 278 279 280 279 281 281 283 282 281 280 279 280 278 275 289 291 284 288 291 289
296 297 297 297 298 297 297 297 298 298 298 296 288 292 291 286 283 289 289 290 288 287 284 284 282 281 284 281 281 281 281 283 281 278 287 281 284 283 283 283 289 290 288 288 293 291 289

GFSGBSN_sfc_thetae_078.txt.gz
Theta_e
312 311 310 310 309 309 309 309 308 308 308 308 308 309 308 309 309 308 308 307 308 307 308 309 310 310 308 300 299 305 308 311 314 312 309 306 302 301 297 298 299 298 299 301 302 303 302
312 311 310 310 310 310 309 308 308 308 308 308 309 308 308 308 308 308 307 307 307 307 308 309 310 310 304 293 306 306 306 306 308 310 308 310 305 306 301 300 298 300 300 301 302 302 303
311 310 310 310 310 310 308 308 308 308 307 307 307 307 308 307 307 306 306 307 308 307 309 311 312 309 302 299 308 309 308 306 307 308 305 309 310 304 302 298 302 299 296 299 301 302 301
311 310 311 310 310 309 309 308 307 306 306 306 306 306 306 306 306 306 306 307 307 308 311 312 312 307 300 308 312 310 310 308 310 308 307 308 309 304 301 302 298 295 296 292 299 301 303
310 310 310 310 308 307 307 306 306 306 305 305 305 305 305 305 306 306 306 306 307 311 312 312 308 305 298 310 307 311 311 305 306 308 306 305 304 301 299 294 292 293 288 291 294 301 300
311 310 309 308 308 308 307 306 305 305 305 305 305 305 305 305 306 306 306 305 307 312 311 311 306 298 303 300 307 308 310 307 303 302 301 300 299 295 294 291 285 289 290 292 291 296 297
311 310 308 307 308 307 306 306 306 306 304 304 305 304 305 305 304 305 305 305 300 299 298 294 295 298 298 302 306 304 306 304 303 300 294 297 292 289 290 293 294 292 289 289 292 295 294
311 309 308 307 307 307 307 307 306 304 304 304 304 304 304 304 303 302 303 296 294 295 290 295 296 296 299 301 294 298 306 299 300 295 297 295 290 294 295 294 292 291 289 289 293 296 296
308 307 307 308 307 306 305 306 305 304 303 303 303 303 304 304 300 302 297 295 299 299 291 293 297 298 299 300 296 297 300 300 297 294 295 292 293 297 295 293 291 292 291 292 292 296 298
307 307 306 307 306 305 304 304 304 303 302 302 302 303 304 303 297 299 296 298 300 301 290 288 296 299 300 300 296 301 301 299 296 292 294 293 296 294 294 293 295 289 295 294 293 292 289
306 305 305 305 304 304 303 303 302 301 301 302 302 303 303 301 299 296 296 301 302 299 278 290 297 305 300 297 299 297 302 297 292 293 294 290 293 294 291 292 296 291 296 294 294 293 293
305 304 303 302 302 302 303 302 301 301 301 301 302 302 302 300 301 298 301 301 302 286 276 286 294 291 291 295 296 298 297 300 300 295 296 294 298 297 296 298 297 297 294 293 294 293 286
304 302 301 301 301 301 301 301 301 300 300 301 302 301 300 301 295 301 301 300 284 279 286 284 286 288 287 290 293 295 294 293 291 287 288 291 292 297 298 293 296 295 289 283 284 283 284
302 301 301 301 301 302 302 301 300 299 300 301 301 298 298 300 301 302 300 288 277 280 282 287 286 287 285 289 289 291 292 291 294 292 288 286 284 290 296 294 289 291 290 285 279 282 286
302 301 300 301 301 301 301 300 299 299 300 300 297 300 301 301 303 302 291 282 280 282 283 283 285 283 284 288 287 289 290 290 292 294 287 287 286 293 296 296 295 292 289 295 288 290 285
301 300 299 299 300 299 300 300 299 299 300 298 297 297 296 301 303 297 288 280 282 285 285 284 279 283 281 284 283 286 287 294 293 295 296 291 285 292 295 298 297 296 298 287 289 281 281
300 299 299 299 300 299 299 299 299 299 299 297 296 291 297 301 301 292 282 280 282 285 286 282 281 280 281 281 282 283 285 292 294 295 297 293 290 289 295 292 291 292 291 292 290 290 284
299 298 298 298 299 299 299 299 299 299 298 296 294 287 297 299 288 289 283 283 285 284 287 285 285 283 281 282 281 282 282 287 295 295 291 294 291 286 289 295 297 296 293 293 287 285 289
299 298 298 298 299 299 299 299 299 299 297 296 290 288 298 296 282 283 284 283 285 284 285 284 283 285 286 283 279 283 284 290 294 293 289 291 289 284 286 291 295 292 294 292 289 289 286
300 298 298 298 298 299 298 298 298 298 297 297 290 283 290 292 290 284 280 280 281 287 286 286 285 287 284 283 286 282 284 289 293 292 292 291 289 288 283 284 291 289 291 293 291 286 287
301 298 298 298 297 298 298 298 298 298 297 297 290 285 287 281 284 284 284 282 280 277 285 286 284 281 281 279 282 283 285 286 290 292 292 288 286 288 288 287 289 288 288 289 289 289 286
299 299 298 298 297 297 298 298 298 298 297 295 286 288 289 286 284 283 282 281 279 281 282 281 281 284 284 280 282 281 284 286 285 290 289 288 286 289 286 287 289 287 289 288 289 290 290
298 298 299 298 297 298 298 298 298 299 297 294 291 292 290 283 283 283 282 281 280 283 284 286 285 284 283 284 288 289 290 289 289 286 286 285 285 286 281 287 286 282 287 288 289 291 293
298 297 298 297 297 298 298 298 298 299 296 297 294 290 288 281 283 282 281 282 282 283 282 286 286 285 288 292 292 292 291 290 290 290 290 285 284 285 282 284 275 287 292 292 291 293 296
298 298 298 297 298 299 299 298 298 299 297 298 297 294 290 283 284 282 282 282 284 286 284 285 287 290 292 290 285 282 284 285 287 290 289 291 288 283 281 281 283 285 290 290 290 290 296
298 298 297 297 299 299 299 299 298 299 298 298 297 298 292 285 283 284 282 283 282 283 284 285 290 293 292 287 283 277 277 280 280 284 290 288 290 285 283 277 274 288 292 295 294 286 295
298 297 297 298 299 299 299 299 298 298 299 298 296 298 292 285 288 287 284 284 286 285 283 286 286 287 290 284 279 279 279 285 279 280 282 284 285 282 283 281 284 291 294 296 282 285 294
297 297 298 298 298 299 298 298 298 299 299 298 296 298 292 286 288 288 289 286 287 287 283 286 285 286 285 281 280 279 281 284 284 285 284 283 282 283 283 280 277 293 294 288 290 293 292
297 297 298 298 298 298 298 297 297 298 299 298 294 297 297 290 288 293 293 293 292 291 288 288 285 285 286 283 283 283 283 285 284 281 289 283 287 285 287 286 291 291 290 290 291 290 290

GFSGBSN_sfc_thetae_081.txt.gz
Theta_e
317 315 313 312 311 311 310 310 310 309 309 308 309 309 309 309 309 309 308 308 308 308 308 309 310 311 310 302 302 311 312 312 315 314 309 308 303 302 299 301 302 300 302 304 305 305 304
316 315 313 312 310 310 310 310 309 309 309 308 308 308 308 309 308 307 307 307 307 308 308 309 310 310 307 297 308 309 307 309 311 312 309 309 306 307 302 302 301 302 302 302 303 303 303
314 314 312 311 310 310 311 309 308 309 309 307 306 307 307 306 306 306 307 307 307 308 309 310 312 311 305 301 310 310 308 306 308 309 307 309 311 306 305 301 305 303 298 300 301 302 301
314 313 312 311 311 311 310 309 309 309 307 305 305 306 305 306 306 306 306 307 307 308 311 313 313 311 300 310 312 309 311 308 309 308 307 309 309 307 304 304 300 297 297 293 300 302 303
313 312 310 311 311 310 309 309 307 307 306 305 305 305 305 305 305 306 306 307 307 312 312 312 311 308 300 309 307 312 312 306 307 309 307 307 305 302 302 296 293 294 289 293 295 302 301
313 311 311 311 310 308 307 307 307 306 306 305 305 305 305 305 306 306 306 305 308 311 312 312 309 302 306 302 307 310 312 310 305 305 302 301 300 297 297 295 288 289 291 294 294 298 299
311 310 310 309 308 308 308 307 307 306 305 304 304 304 304 305 305 305 304 307 305 304 304 298 298 299 299 303 305 304 308 306 306 302 295 299 294 292 294 296 295 294 292 291 294 297 295
310 309 308 308 308 308 307 307 307 306 304 304 304 304 304 305 304 304 306 301 297 298 293 299 299 300 303 304 297 301 306 301 300 296 299 297 292 297 297 296 294 292 291 290 294 297 297
308 309 309 308 308 308 308 308 306 305 304 303 303 303 304 304 303 303 300 298 302 302 296 296 301 301 302 303 299 299 302 301 298 296 297 294 297 298 296 295 292 292 291 291 292 297 299
309 307 307 308 307 306 306 306 305 303 302 301 302 303 303 303 299 302 300 301 303 305 293 292 298 301 303 303 299 304 304 300 297 294 296 296 299 296 294 293 294 290 296 295 294 293 288
306 306 306 307 306 305 304 304 303 302 301 301 302 302 303 303 302 299 299 303 306 303 282 292 298 306 301 298 300 301 304 299 294 295 294 292 294 294 293 293 296 293 297 296 295 291 291
305 305 306 305 304 304 303 303 302 301 301 301 302 302 302 303 303 302 304 304 304 292 280 289 296 293 292 296 297 300 300 302 301 297 297 295 300 297 296 298 298 298 295 295 294 291 285
303 304 303 302 302 302 302 302 302 300 300 301 301 301 300 302 299 304 305 302 290 282 289 287 289 291 290 290 292 295 295 295 293 290 291 295 295 299 299 294 297 296 292 284 283 285 284
304 303 302 301 301 301 301 302 300 299 299 300 300 299 299 302 305 306 302 294 281 284 285 290 288 289 286 290 291 292 291 290 295 294 290 287 286 294 298 295 293 293 291 284 279 281 285
303 302 301 301 302 302 301 300 299 299 300 300 299 301 302 303 306 304 295 286 285 286 287 286 287 285 286 288 289 289 290 290 293 295 289 288 287 296 297 298 297 293 289 294 288 290 285
302 300 301 301 302 301 301 300 299 299 299 300 299 298 299 304 305 300 291 284 285 287 287 286 281 284 283 286 285 287 287 293 293 297 298 292 286 294 297 298 298 295 298 288 290 281 281
301 300 299 300 300 299 299 299 299 299 299 298 298 294 299 304 304 295 287 285 285 287 287 284 282 283 283 283 284 283 284 290 295 295 298 297 291 290 294 293 292 294 292 293 292 290 283
300 299 300 300 299 299 300 299 299 299 299 296 297 290 299 302 293 293 288 286 285 286 289 287 287 285 283 284 284 284 283 286 293 295 290 295 293 287 289 296 298 296 294 293 287 286 290
299 298 298 299 300 300 299 299 299 299 298 298 293 292 299 300 287 287 286 285 287 286 287 286 285 287 288 285 281 284 286 290 291 290 289 289 289 284 286 291 296 293 294 295 294 292 287
299 298 298 299 300 299 299 298 298 299 298 298 294 288 292 295 293 287 285 284 284 289 287 288 287 288 286 285 287 284 285 289 291 292 293 292 286 286 283 286 291 290 292 295 293 287 287
300 299 299 298 299 299 298 298 298 298 297 297 295 289 292 286 288 287 287 285 283 282 287 288 284 284 281 281 283 284 286 288 290 291 291 291 284 286 289 291 291 289 289 292 291 291 287
301 299 299 298 298 298 298 298 298 298 298 296 288 291 291 289 288 286 283 283 282 284 284 284 281 285 286 283 284 283 286 287 285 290 289 290 283 287 283 291 291 287 291 291 291 290 290
300 299 298 299 297 298 298 298 298 298 298 295 296 296 293 286 287 285 285 284 283 285 286 287 286 285 284 287 290 291 291 290 290 287 286 286 285 283 279 290 288 282 288 290 290 292 292
299 299 299 299 298 299 299 299 298 299 297 298 297 296 292 285 286 285 284 284 284 285 284 287 288 286 289 294 293 292 292 291 291 290 291 286 285 284 279 287 277 288 293 293 290 293 296
299 298 298 298 298 299 299 299 299 299 298 297 298 294 291 286 288 284 284 284 286 287 286 286 288 291 294 291 286 284 284 285 288 290 290 290 285 281 280 283 284 287 291 291 290 291 296
299 299 298 298 299 300 299 299 299 299 298 298 298 299 295 287 285 286 284 285 285 285 286 287 291 295 293 287 284 278 276 280 281 284 290 289 289 282 282 279 277 288 294 296 295 287 294
299 299 299 299 299 299 299 299 299 299 299 298 296 300 293 288 291 289 287 287 289 287 285 287 288 289 292 285 281 280 278 285 280 280 282 283 284 281 282 282 286 293 295 297 283 285 294
299 298 299 299 299 299 299 299 299 299 299 298 296 300 293 288 291 291 290 288 289 288 284 289 287 288 286 282 283 281 278 285 284 286 285 284 282 283 284 281 277 294 295 289 289 294 293
298 298 298 298 299 299 299 299 299 299 299 299 293 298 298 290 291 296 295 296 294 293 290 289 287 286 288 284 285 283 282 286 285 281 290 283 286 285 286 285 289 290 289 289 292 290 290

GFSGBSN_sfc_thetae_084.txt.gz
Theta_e
320 320 319 318 316 314 313 312 311 311 310 309 309 310 310 310 310 309 309 309 308 308 308 309 310 311 309 302 303 313 319 315 315 311 308 307 302 300 296 298 300 299 301 303 305 304 305
319 319 318 317 315 313 312 311 311 311 310 309 309 309 308 309 308 307 307 307 308 308 308 309 310 310 305 295 309 311 308 308 309 310 308 307 305 305 301 300 299 301 301 301 302 302 303
319 318 317 315 314 312 311 312 311 310 309 310 308 307 307 306 307 307 307 307 307 308 308 310 311 309 303 300 310 311 309 305 306 307 306 309 308 305 305 300 304 302 297 300 300 301 300
319 318 316 314 312 311 310 311 309 309 310 309 307 306 306 306 306 306 306 306 307 308 310 313 313 310 299 310 312 308 309 307 309 307 306 308 309 305 303 305 301 297 297 290 297 299 300
319 317 315 313 311 310 311 310 309 309 308 307 306 306 306 306 306 307 307 307 307 309 313 313 311 308 299 311 306 310 312 306 307 306 306 306 304 300 301 296 293 294 289 291 294 300 299
319 316 314 312 309 310 311 310 309 308 307 306 305 305 305 305 306 306 306 307 309 311 311 313 310 303 306 302 307 309 312 310 305 305 303 301 298 295 295 293 285 289 290 292 291 296 298
317 315 312 310 310 311 310 308 307 307 307 306 305 305 304 304 305 306 305 307 304 304 308 304 302 302 300 304 307 303 305 307 305 302 295 299 293 290 293 295 295 294 292 290 293 297 294
314 312 311 311 310 309 308 308 307 307 306 305 304 304 304 304 304 306 304 301 298 298 292 302 300 300 304 305 299 302 304 300 299 294 298 295 291 296 298 297 295 293 290 290 293 295 295
312 311 310 308 307 307 307 308 308 307 305 304 302 303 303 304 304 302 300 299 303 303 293 297 301 302 303 304 300 300 301 299 297 295 296 293 296 299 297 295 293 293 290 290 290 294 296
309 308 307 308 308 307 308 308 306 305 303 301 302 302 303 303 299 301 300 301 303 306 290 292 296 301 304 304 299 305 305 300 297 293 295 295 299 296 295 294 294 289 295 294 293 291 286
307 308 308 308 307 306 306 305 304 303 301 301 301 302 302 302 300 299 300 303 305 304 281 294 298 307 302 298 299 301 305 300 294 295 295 292 294 293 292 293 295 291 296 295 294 292 291
306 306 306 307 306 305 304 303 302 301 301 301 301 302 302 302 303 303 304 304 303 291 280 289 298 295 293 296 297 301 300 302 301 295 296 294 299 296 294 297 297 298 295 294 293 291 284
306 306 305 304 303 303 303 303 302 300 300 300 301 301 299 301 299 304 305 300 290 283 291 288 290 292 290 289 291 293 294 295 292 288 289 294 295 298 299 293 297 295 291 283 281 282 281
304 303 303 302 301 300 300 301 301 299 299 300 301 300 302 302 305 306 302 293 281 286 287 291 289 289 286 289 290 290 290 289 293 292 289 286 284 294 298 295 292 292 291 284 277 279 282
303 302 302 301 300 301 301 302 299 299 300 300 300 300 302 304 305 304 295 285 284 287 288 286 287 285 286 289 289 289 289 288 291 292 287 287 287 296 297 298 296 292 288 293 287 288 283
302 301 301 301 302 302 301 300 299 299 300 300 296 298 297 303 305 300 291 285 286 289 288 287 282 285 282 286 286 286 286 290 292 297 298 293 286 293 295 298 298 294 296 288 287 279 278
301 300 300 301 301 301 300 299 299 299 300 299 296 293 299 303 304 296 287 286 286 289 288 285 284 283 284 283 284 283 283 287 290 292 293 293 290 290 294 292 291 292 291 291 291 288 281
301 300 300 300 300 299 299 299 299 299 300 297 297 291 300 303 292 292 288 287 285 287 289 287 287 285 284 284 283 283 283 286 291 291 285 291 288 285 289 295 298 295 292 293 286 284 288
300 299 300 300 300 300 299 299 299 299 299 296 292 292 298 300 288 287 287 286 288 287 287 287 286 287 288 285 281 284 286 291 291 289 287 290 286 280 284 290 294 291 293 294 294 292 285
299 298 298 299 300 299 299 299 299 298 299 296 293 288 292 294 293 289 285 285 284 289 288 288 287 288 286 284 287 284 285 289 291 291 292 291 285 282 279 284 288 287 291 293 292 287 287
299 299 298 299 299 299 298 298 298 298 299 296 294 290 292 287 287 289 288 286 284 283 288 289 286 286 285 281 283 283 286 287 290 292 290 289 281 284 286 288 288 287 288 289 288 290 287
300 299 299 298 300 299 298 298 298 298 299 296 289 291 292 290 289 287 284 284 283 285 284 285 284 286 286 283 284 282 285 286 285 288 288 289 282 284 282 286 287 286 289 290 290 290 290
301 300 299 299 298 298 298 298 298 298 298 295 295 296 293 288 287 286 286 285 284 286 287 288 286 285 284 286 288 290 290 289 288 285 285 285 282 281 278 285 285 283 288 289 290 292 292
301 300 298 299 298 298 298 298 298 298 298 297 296 294 291 285 286 285 286 285 284 285 284 287 288 286 289 293 292 291 289 289 289 288 290 285 283 283 279 282 274 287 294 293 291 294 294
300 300 299 299 298 299 298 298 298 299 299 297 297 294 291 286 287 286 285 285 286 287 286 286 289 291 294 290 284 282 283 284 286 288 288 290 285 280 278 278 282 288 291 291 290 288 293
300 299 299 299 299 300 299 299 299 299 299 298 297 299 293 289 285 288 285 286 284 285 286 288 291 295 292 288 283 277 276 280 280 284 290 288 289 282 279 275 276 286 292 296 294 285 292
300 299 299 299 299 300 299 299 298 299 298 298 297 301 294 289 290 289 287 287 289 287 285 288 289 289 293 285 280 279 279 284 278 280 281 283 283 279 279 277 283 287 292 296 283 283 291
299 299 300 299 299 300 299 299 299 299 299 298 298 301 294 290 291 291 291 288 289 288 284 288 287 287 286 282 282 281 279 281 283 285 283 281 281 281 281 280 277 289 290 285 287 290 290
299 299 299 299 299 299 299 299 299 298 299 298 296 299 298 292 291 296 296 296 294 293 289 289 287 288 288 284 284 283 280 284 283 280 290 282 285 283 282 281 287 288 287 288 289 287 287

GFSGBSN_sfc_thetae_087.txt.gz
Theta_e
324 323 321 320 320 319 318 316 315 313 313 312 310 310 310 310 310 310 310 309 308 308 308 308 310 311 306 299 301 313 321 319 314 307 302 301 300 297 292 294 295 294 295 298 299 300 299
323 322 321 319 320 319 317 316 314 313 312 312 311 310 309 309 309 308 307 308 307 307 308 309 310 309 302 293 304 311 310 307 308 307 305 306 302 302 297 295 293 296 297 297 298 298 298
324 322 321 319 319 318 316 314 313 313 312 311 311 310 308 307 307 307 307 307 307 307 308 309 311 308 301 297 306 305 307 302 302 302 301 305 305 300 299 297 301 299 293 295 295 295 296
324 322 321 319 318 316 314 313 312 312 310 310 310 308 307 307 307 307 306 307 307 308 308 310 313 307 297 308 306 306 305 303 304 304 302 302 303 299 297 299 297 293 292 286 292 295 296
324 323 321 319 317 314 313 311 311 311 310 310 308 307 306 307 307 307 307 307 307 308 310 314 308 305 298 312 305 307 304 301 303 304 302 304 299 294 295 289 287 289 284 286 290 296 295
324 323 321 319 315 313 311 310 310 309 310 308 306 306 306 306 306 306 307 307 306 308 311 311 309 299 304 301 306 307 305 308 304 302 298 297 292 288 288 285 280 284 284 285 285 290 293
324 323 320 317 314 312 310 310 310 309 307 307 306 306 305 305 305 306 304 300 298 299 304 300 301 299 301 302 304 301 303 302 302 298 291 294 286 283 286 289 290 290 288 287 289 293 291
322 322 319 315 312 310 310 311 308 307 307 307 306 304 304 304 305 305 301 296 296 295 288 301 304 302 301 302 297 301 303 294 296 290 294 291 286 292 294 293 292 290 287 286 289 292 292
320 318 316 312 311 311 311 309 308 307 307 306 303 303 303 304 304 301 297 296 301 301 289 295 298 300 300 303 298 298 298 295 294 291 292 288 292 296 294 293 291 290 287 287 287 291 292
314 312 312 311 310 308 307 307 307 307 305 302 301 302 303 303 298 299 297 299 302 302 286 292 293 299 302 302 298 304 303 297 293 290 291 290 296 294 293 292 292 287 293 292 290 288 283
309 308 308 308 307 307 307 307 306 305 302 301 301 302 302 302 295 295 298 300 301 300 279 292 295 306 304 299 298 299 303 298 291 291 291 289 291 290 290 291 294 289 294 291 290 287 286
307 307 307 307 307 306 305 305 303 302 301 300 301 301 302 299 298 299 301 300 299 287 279 291 297 294 294 295 295 299 298 300 298 293 292 291 295 292 291 294 294 295 293 291 290 286 280
305 306 307 306 305 304 304 303 302 301 300 299 300 301 299 299 295 301 301 296 286 280 292 287 290 292 290 289 291 291 293 291 288 284 285 290 291 294 295 289 293 291 287 279 277 277 277
305 304 304 303 303 302 302 302 301 300 299 299 300 300 299 299 301 301 298 289 280 286 286 291 289 288 285 288 287 288 287 284 288 287 283 281 280 289 295 291 289 288 287 280 275 276 280
303 302 302 301 301 300 299 301 300 299 298 299 300 295 297 300 301 299 290 281 281 285 287 285 286 283 284 287 287 287 286 286 288 291 284 284 284 294 296 296 294 289 285 291 284 285 280
303 302 301 301 301 301 301 301 299 298 299 299 293 295 295 299 300 296 287 284 285 287 287 287 281 285 281 283 283 282 283 288 285 291 290 287 282 292 294 296 294 291 293 281 284 278 277
302 302 301 301 302 301 301 300 299 299 299 299 291 289 296 299 298 291 282 284 285 289 288 284 283 282 282 282 283 282 283 286 288 287 287 287 286 285 290 289 288 288 287 288 288 286 279
300 300 300 300 300 300 299 299 299 299 299 296 291 285 296 298 287 289 284 287 287 287 289 287 287 285 283 284 282 282 282 285 291 289 283 289 286 279 282 289 292 291 290 289 282 282 284
300 300 300 301 300 300 300 299 298 299 299 292 288 287 294 296 282 282 286 286 288 286 287 286 285 287 287 284 280 284 285 290 290 288 285 286 281 276 278 285 290 287 290 289 290 289 284
300 300 300 300 300 300 299 299 298 298 299 293 289 283 287 290 289 286 283 284 283 288 287 288 286 288 285 283 285 282 283 288 291 289 294 290 283 279 274 279 284 282 286 288 287 283 284
299 299 299 300 299 299 298 298 298 298 299 293 290 286 288 281 282 285 286 285 284 283 288 288 285 285 284 279 281 280 284 286 288 291 288 286 278 281 282 283 284 283 284 286 285 286 284
299 299 299 299 299 298 298 297 298 298 299 291 285 285 288 286 287 285 284 283 283 284 284 284 283 285 284 280 282 279 283 283 283 286 285 285 277 281 278 282 283 282 284 286 287 289 290
299 299 299 299 299 298 298 297 298 299 298 291 290 291 288 286 283 282 282 285 284 286 287 287 285 283 282 284 286 285 286 285 285 283 281 280 277 279 275 282 282 278 284 286 289 291 290
301 299 299 299 298 298 298 298 298 299 298 292 291 290 285 280 281 283 286 286 284 285 283 285 286 283 288 290 289 287 287 286 285 284 286 280 279 279 275 279 270 282 291 291 290 290 291
301 300 299 299 298 298 298 298 298 299 299 292 294 290 286 279 285 285 285 284 285 285 283 284 287 289 289 286 281 279 278 281 283 286 287 286 282 278 275 273 280 285 287 286 287 286 290
301 300 300 299 299 300 299 298 299 299 299 294 294 295 288 282 281 287 283 285 279 280 282 287 291 291 288 280 277 275 273 278 278 282 288 286 284 278 279 274 271 283 287 289 289 282 288
299 300 299 299 299 300 299 299 298 299 299 294 292 295 290 282 286 287 282 282 286 283 279 284 285 286 288 275 270 275 275 282 277 279 279 279 280 278 278 274 280 285 286 290 280 280 287
300 300 299 300 299 300 300 299 298 299 299 295 293 295 289 283 287 290 290 284 285 284 277 282 281 282 280 275 278 273 270 278 278 284 282 280 279 279 280 276 275 286 286 281 286 287 286
300 299 299 299 299 299 300 299 299 298 299 297 290 295 294 286 286 291 292 292 290 289 284 284 282 283 281 276 278 278 278 281 281 277 286 280 284 280 280 279 285 286 284 286 287 286 285

GFSGBSN_sfc_thetae_090.txt.gz
Theta_e
327 326 324 323 322 321 321 319 317 316 315 315 314 313 311 311 311 311 311 310 308 308 308 309 309 310 305 298 299 308 322 320 311 304 300 300 298 296 291 291 293 292 295 298 298 298 298
325 325 324 323 322 321 321 320 317 315 315 314 313 312 311 311 310 309 308 308 308 307 308 308 309 309 301 289 300 308 314 311 311 305 304 301 301 301 296 293 290 294 294 294 295 295 296
323 325 324 323 322 321 320 319 317 315 314 313 312 312 311 309 308 308 307 307 308 307 308 308 309 306 300 294 302 306 308 302 304 307 303 305 304 297 296 294 299 297 292 293 293 293 292
321 323 324 323 321 320 319 318 316 315 313 312 311 311 310 308 307 307 307 307 307 307 308 309 310 306 295 307 305 305 303 302 302 301 300 300 299 296 294 296 294 291 290 285 291 293 295
320 322 323 323 321 320 318 317 315 313 312 311 311 310 307 307 307 307 306 307 307 307 308 310 308 303 296 312 306 309 305 301 302 301 300 304 298 293 292 287 285 287 282 285 288 293 293
320 321 321 322 322 320 318 316 314 312 311 310 310 307 306 306 306 306 307 306 306 306 308 311 308 299 301 300 305 305 304 303 300 300 297 294 290 286 285 283 279 282 283 283 283 288 290
321 321 321 322 322 319 317 315 312 311 310 309 307 306 306 305 305 305 304 299 298 297 301 298 297 298 301 302 303 300 303 301 300 297 288 292 286 282 284 286 288 287 286 284 287 290 288
320 320 321 322 321 318 316 314 311 310 309 307 306 306 306 304 304 304 301 294 296 295 288 300 303 302 304 304 297 300 301 293 293 289 291 288 284 290 291 290 289 287 285 284 288 291 289
319 320 321 321 320 316 314 311 310 308 307 306 307 305 303 303 303 299 295 296 302 299 288 292 296 300 302 303 296 298 298 294 292 290 290 286 290 294 292 290 288 288 285 285 287 290 289
314 318 319 319 315 314 312 310 308 307 306 306 304 302 302 303 296 296 294 299 301 300 282 289 293 297 301 301 296 302 298 294 291 288 290 289 294 292 291 289 290 285 292 290 288 285 281
308 309 312 312 312 310 308 307 307 307 305 303 302 301 301 301 294 293 297 298 299 299 276 293 293 304 302 297 298 298 302 297 290 290 290 288 289 289 288 289 292 288 293 290 288 284 283
307 307 307 307 307 307 307 306 304 303 302 302 301 300 301 298 296 298 299 299 298 286 277 289 296 295 295 297 295 298 298 299 297 291 290 289 292 290 290 292 292 293 290 289 288 285 279
307 307 307 307 306 305 304 304 303 302 300 299 299 299 298 298 294 299 299 295 285 279 292 288 291 294 293 291 292 295 293 290 288 283 284 288 289 292 293 288 290 289 285 278 276 276 276
306 305 305 305 304 304 302 302 301 300 299 299 299 299 297 298 298 300 297 288 280 284 285 289 288 288 286 288 287 287 287 284 291 288 283 280 279 287 293 288 286 286 286 279 275 275 278
304 304 303 303 302 301 302 301 299 298 298 298 298 294 294 299 299 298 291 281 281 284 286 284 286 283 284 286 285 287 285 284 286 286 283 280 282 290 293 293 290 287 283 289 282 283 279
303 302 302 301 301 301 301 300 298 297 298 298 292 293 294 300 299 295 286 284 282 287 287 286 281 284 280 282 281 282 283 286 285 286 286 284 277 289 289 292 292 291 292 280 280 275 275
302 302 301 301 301 301 301 300 298 298 298 299 291 288 295 298 298 290 280 283 285 288 288 285 282 281 282 281 282 281 282 286 287 286 287 285 283 282 286 286 282 283 283 286 285 283 277
302 301 302 302 301 301 300 300 299 298 298 296 290 283 295 297 287 288 282 286 289 287 290 287 287 286 283 284 282 282 282 285 290 288 283 287 283 278 280 287 289 288 287 289 282 280 282
300 300 300 300 300 300 299 299 299 299 298 291 287 286 293 296 279 280 286 286 287 287 287 287 285 287 287 283 279 284 284 289 290 287 284 284 280 274 275 280 287 284 286 286 286 286 280
300 300 300 300 300 300 299 298 298 298 298 292 288 280 284 288 288 285 282 284 283 289 287 288 287 288 285 283 284 281 282 287 289 289 293 288 280 278 273 276 281 279 282 284 284 280 281
300 300 300 300 300 299 298 298 298 298 298 292 286 283 287 280 283 284 285 286 283 282 288 288 284 284 283 279 280 279 282 284 286 289 286 284 277 280 281 282 282 281 281 282 281 283 280
299 299 300 300 299 298 298 298 298 298 299 291 284 285 287 284 287 284 284 282 283 284 285 283 282 285 283 278 280 278 281 281 281 285 282 283 276 279 276 280 281 279 282 283 283 284 286
299 300 299 300 299 298 297 298 298 299 298 289 289 290 287 284 282 281 281 284 284 285 286 286 284 282 281 282 284 284 284 284 283 281 279 279 275 275 272 279 279 276 281 283 284 288 289
300 299 299 299 298 298 298 298 298 299 296 291 290 289 284 278 281 282 285 285 284 284 281 284 284 282 286 288 287 285 284 284 284 283 284 277 277 277 274 277 269 282 289 289 287 288 289
301 300 299 299 297 298 298 298 299 299 300 292 292 288 284 278 284 284 284 283 283 284 282 283 287 288 288 285 280 278 278 280 282 284 283 283 280 276 272 274 279 282 287 284 281 283 286
301 300 299 299 298 299 298 298 298 299 300 292 291 292 288 280 280 286 282 283 279 279 280 285 289 289 287 279 276 274 272 277 278 280 286 284 283 277 277 273 268 280 284 288 287 279 286
300 300 300 299 299 299 299 298 299 299 299 293 291 292 288 279 285 286 281 280 283 280 278 282 284 284 285 272 269 272 273 281 276 276 279 278 279 276 275 274 278 282 285 287 279 278 283
300 300 300 300 300 300 299 298 298 298 299 294 290 291 288 281 285 288 289 283 282 281 275 280 279 279 278 274 274 270 269 276 278 281 281 280 278 278 279 275 273 284 284 279 284 285 283
300 300 300 299 300 300 299 298 298 298 299 297 287 293 292 284 284 289 289 290 289 288 283 282 280 281 279 274 275 275 274 277 279 277 285 277 280 278 279 277 284 285 284 286 286 284 283